Time,TemperatureF,DewpointF,PressureIn,WindDirection,WindDirectionDegrees,WindSpeedMPH,WindSpeedGustMPH,Humidity,HourlyPrecipIn,Conditions,Clouds,dailyrainin,SolarRadiationWatts/m^2,SoftwareType,DateUTC
2013-04-21 00:01:00,43.6,41.7,30.22,SE,142,0.0,0.0,93,0.00,,---,0.00,0.00,VWS V14.01,2013-04-21 05:01:00,
2013-04-21 00:05:00,43.4,41.5,30.22,SE,142,0.0,0.0,93,0.00,,---,0.00,0.00,VWS V14.01,2013-04-21 05:05:00,
2013-04-21 00:06:00,43.4,41.5,30.22,SE,142,0.0,0.0,93,0.00,,---,0.00,0.00,VWS V14.01,2013-04-21 05:06:00,
2013-04-21 00:07:00,43.4,41.5,30.22,SE,142,0.0,0.0,93,0.00,,---,0.00,0.00,VWS V14.01,2013-04-21 05:07:00,
2013-04-21 00:08:00,43.4,41.5,30.22,SE,142,0.0,0.0,93,0.00,,---,0.00,0.00,VWS V14.01,2013-04-21 05:08:00,
2013-04-21 00:10:00,43.4,41.5,30.22,SE,142,0.0,0.0,93,0.00,,---,0.00,0.00,VWS V14.01,2013-04-21 05:10:00,
2013-04-21 00:12:00,43.3,41.7,30.21,SE,142,0.0,0.0,94,0.00,,---,0.00,0.00,VWS V14.01,2013-04-21 05:12:00,
2013-04-21 00:14:00,43.3,41.4,30.21,SE,142,0.0,0.0,93,0.00,,---,0.00,0.00,VWS V14.01,2013-04-21 05:14:00,
2013-04-21 00:15:00,43.2,41.3,30.21,SE,142,0.0,0.0,93,0.00,,---,0.00,0.00,VWS V14.01,2013-04-21 05:15:00,
2013-04-21 00:17:00,43.2,41.6,30.21,SE,142,0.0,0.0,94,0.00,,---,0.00,0.00,VWS V14.01,2013-04-21 05:17:00,
2013-04-21 00:18:00,43.2,41.6,30.21,SE,142,0.0,0.0,94,0.00,,---,0.00,0.00,VWS V14.01,2013-04-21 05:18:00,
2013-04-21 00:19:00,43.2,41.3,30.21,SE,142,0.0,0.0,93,0.00,,---,0.00,0.00,VWS V14.01,2013-04-21 05:19:00,
2013-04-21 00:20:00,43.1,41.2,30.21,SE,142,0.0,0.0,93,0.00,,---,0.00,0.00,VWS V14.01,2013-04-21 05:20:00,
2013-04-21 00:23:00,42.9,41.0,30.21,SE,142,0.0,0.0,93,0.00,,---,0.00,0.00,VWS V14.01,2013-04-21 05:23:00,
2013-04-21 00:24:00,42.9,41.3,30.21,SE,142,0.0,0.0,94,0.00,,---,0.00,0.00,VWS V14.01,2013-04-21 05:24:00,
2013-04-21 00:25:00,42.9,41.3,30.21,SE,142,0.0,0.0,94,0.00,,---,0.00,0.00,VWS V14.01,2013-04-21 05:25:00,
2013-04-21 00:26:00,42.8,41.2,30.21,SE,142,0.0,0.0,94,0.00,,---,0.00,0.00,VWS V14.01,2013-04-21 05:26:00,
2013-04-21 00:29:00,42.7,41.1,30.21,SE,142,0.0,0.0,94,0.00,,---,0.00,0.00,VWS V14.01,2013-04-21 05:29:00,
2013-04-21 00:30:00,42.7,41.1,30.21,SE,142,0.0,0.0,94,0.00,,---,0.00,0.00,VWS V14.01,2013-04-21 05:30:00,
2013-04-21 00:31:00,42.7,41.1,30.21,SE,142,0.0,0.0,94,0.00,,---,0.00,0.00,VWS V14.01,2013-04-21 05:31:00,
2013-04-21 00:32:00,42.8,41.2,30.21,SE,142,0.0,0.0,94,0.00,,---,0.00,0.00,VWS V14.01,2013-04-21 05:32:00,
2013-04-21 00:33:00,42.7,41.1,30.21,SE,142,0.0,0.0,94,0.00,,---,0.00,0.00,VWS V14.01,2013-04-21 05:33:00,
2013-04-21 00:34:00,42.7,41.1,30.21,SE,142,0.0,0.0,94,0.00,,---,0.00,0.00,VWS V14.01,2013-04-21 05:34:00,
2013-04-21 00:35:00,42.7,41.1,30.21,SE,142,0.0,0.0,94,0.00,,---,0.00,0.00,VWS V14.01,2013-04-21 05:35:00,
2013-04-21 00:36:00,42.6,41.0,30.21,SE,142,0.0,0.0,94,0.00,,---,0.00,0.00,VWS V14.01,2013-04-21 05:36:00,
2013-04-21 00:39:00,42.5,40.9,30.21,SE,142,0.0,0.0,94,0.00,,---,0.00,0.00,VWS V14.01,2013-04-21 05:39:00,
2013-04-21 00:41:00,42.5,40.9,30.21,SE,142,0.0,0.0,94,0.00,,---,0.00,0.00,VWS V14.01,2013-04-21 05:41:00,
2013-04-21 00:42:00,42.5,40.9,30.21,SE,142,0.0,0.0,94,0.00,,---,0.00,0.00,VWS V14.01,2013-04-21 05:42:00,
2013-04-21 00:44:00,42.4,40.8,30.21,SE,142,0.0,0.0,94,0.00,,---,0.00,0.00,VWS V14.01,2013-04-21 05:44:00,
2013-04-21 00:45:00,42.4,40.8,30.21,SE,142,0.0,0.0,94,0.00,,---,0.00,0.00,VWS V14.01,2013-04-21 05:45:00,
2013-04-21 00:47:00,42.4,40.8,30.21,SE,142,0.0,0.0,94,0.00,,---,0.00,0.00,VWS V14.01,2013-04-21 05:47:00,
2013-04-21 00:48:00,42.3,40.7,30.21,SE,142,0.0,0.0,94,0.00,,---,0.00,0.00,VWS V14.01,2013-04-21 05:48:00,
2013-04-21 00:50:00,42.2,40.6,30.21,SE,142,0.0,0.0,94,0.00,,---,0.00,0.00,VWS V14.01,2013-04-21 05:50:00,
2013-04-21 00:51:00,42.2,40.6,30.21,SE,142,0.0,0.0,94,0.00,,---,0.00,0.00,VWS V14.01,2013-04-21 05:51:00,
2013-04-21 00:53:00,42.1,40.5,30.21,SE,142,0.0,0.0,94,0.00,,---,0.00,0.00,VWS V14.01,2013-04-21 05:53:00,
2013-04-21 00:54:00,42.2,40.6,30.21,SE,142,0.0,0.0,94,0.00,,---,0.00,0.00,VWS V14.01,2013-04-21 05:54:00,
2013-04-21 00:56:00,42.2,40.6,30.21,SE,142,0.0,0.0,94,0.00,,---,0.00,0.00,VWS V14.01,2013-04-21 05:56:00,
2013-04-21 00:58:00,42.1,40.5,30.21,SE,142,0.0,0.0,94,0.00,,---,0.00,0.00,VWS V14.01,2013-04-21 05:58:00,
2013-04-21 01:00:00,42.0,40.4,30.22,SE,142,0.0,0.0,94,0.00,,---,0.00,0.00,VWS V14.01,2013-04-21 06:00:00,
2013-04-21 01:02:00,41.9,40.3,30.22,SE,142,0.0,0.0,94,0.00,,---,0.00,0.00,VWS V14.01,2013-04-21 06:02:00,
2013-04-21 01:04:00,41.8,40.2,30.22,SE,142,0.0,0.0,94,0.00,,---,0.00,0.00,VWS V14.01,2013-04-21 06:04:00,
2013-04-21 01:07:00,41.8,40.5,30.22,SE,142,0.0,0.0,95,0.00,,---,0.00,0.00,VWS V14.01,2013-04-21 06:07:00,
2013-04-21 01:08:00,41.7,40.1,30.22,SE,142,0.0,0.0,94,0.00,,---,0.00,0.00,VWS V14.01,2013-04-21 06:08:00,
2013-04-21 01:09:00,41.7,40.1,30.22,SE,142,0.0,0.0,94,0.00,,---,0.00,0.00,VWS V14.01,2013-04-21 06:09:00,
2013-04-21 01:10:00,41.7,40.1,30.22,SE,142,0.0,0.0,94,0.00,,---,0.00,0.00,VWS V14.01,2013-04-21 06:10:00,
2013-04-21 01:14:00,41.6,40.0,30.22,SE,142,0.0,0.0,94,0.00,,---,0.00,0.00,VWS V14.01,2013-04-21 06:14:00,
2013-04-21 01:15:00,41.5,39.9,30.22,SE,142,0.0,0.0,94,0.00,,---,0.00,0.00,VWS V14.01,2013-04-21 06:15:00,
2013-04-21 01:17:00,41.5,39.9,30.22,SE,142,0.0,0.0,94,0.00,,---,0.00,0.00,VWS V14.01,2013-04-21 06:17:00,
2013-04-21 01:19:00,41.3,39.7,30.22,SE,142,0.0,0.0,94,0.00,,---,0.00,0.00,VWS V14.01,2013-04-21 06:19:00,
2013-04-21 01:22:00,41.3,40.0,30.21,SE,142,0.0,0.0,95,0.00,,---,0.00,0.00,VWS V14.01,2013-04-21 06:22:00,
2013-04-21 01:23:00,41.3,40.0,30.21,SE,142,0.0,0.0,95,0.00,,---,0.00,0.00,VWS V14.01,2013-04-21 06:23:00,
2013-04-21 01:27:00,41.3,39.7,30.21,SE,142,0.0,0.0,94,0.00,,---,0.00,0.00,VWS V14.01,2013-04-21 06:27:00,
2013-04-21 01:28:00,41.2,39.9,30.21,SE,142,0.0,0.0,95,0.00,,---,0.00,0.00,VWS V14.01,2013-04-21 06:28:00,
2013-04-21 01:29:00,41.2,39.6,30.21,SE,142,0.0,0.0,94,0.00,,---,0.00,0.00,VWS V14.01,2013-04-21 06:29:00,
2013-04-21 01:31:00,41.1,39.5,30.21,SE,142,0.0,0.0,94,0.00,,---,0.00,0.00,VWS V14.01,2013-04-21 06:31:00,
2013-04-21 01:33:00,41.0,39.4,30.21,SE,142,0.0,0.0,94,0.00,,---,0.00,0.00,VWS V14.01,2013-04-21 06:33:00,
2013-04-21 01:36:00,41.0,39.7,30.20,SE,142,0.0,0.0,95,0.00,,---,0.00,0.00,VWS V14.01,2013-04-21 06:36:00,
2013-04-21 01:37:00,41.0,39.7,30.20,SE,142,0.0,0.0,95,0.00,,---,0.00,0.00,VWS V14.01,2013-04-21 06:37:00,
2013-04-21 01:39:00,41.1,39.8,30.21,SE,142,0.0,0.0,95,0.00,,---,0.00,0.00,VWS V14.01,2013-04-21 06:39:00,
2013-04-21 01:42:00,41.0,39.7,30.20,SE,142,0.0,0.0,95,0.00,,---,0.00,0.00,VWS V14.01,2013-04-21 06:42:00,
2013-04-21 01:43:00,40.9,39.6,30.20,SE,142,0.0,0.0,95,0.00,,---,0.00,0.00,VWS V14.01,2013-04-21 06:43:00,
2013-04-21 01:44:00,40.9,39.6,30.20,SE,142,0.0,0.0,95,0.00,,---,0.00,0.00,VWS V14.01,2013-04-21 06:44:00,
2013-04-21 01:45:00,40.9,39.6,30.20,SE,142,0.0,0.0,95,0.00,,---,0.00,0.00,VWS V14.01,2013-04-21 06:45:00,
2013-04-21 01:48:00,40.8,39.5,30.20,SE,142,0.0,0.0,95,0.00,,---,0.00,0.00,VWS V14.01,2013-04-21 06:48:00,
2013-04-21 01:49:00,40.8,39.5,30.20,SE,142,0.0,0.0,95,0.00,,---,0.00,0.00,VWS V14.01,2013-04-21 06:49:00,
2013-04-21 01:50:00,40.8,39.5,30.21,SE,142,0.0,0.0,95,0.00,,---,0.00,0.00,VWS V14.01,2013-04-21 06:50:00,
2013-04-21 01:51:00,40.7,39.4,30.20,SE,142,0.0,0.0,95,0.00,,---,0.00,0.00,VWS V14.01,2013-04-21 06:51:00,
2013-04-21 01:54:00,40.7,39.4,30.20,SE,142,0.0,0.0,95,0.00,,---,0.00,0.00,VWS V14.01,2013-04-21 06:54:00,
2013-04-21 01:55:00,40.7,39.4,30.20,SE,142,0.0,0.0,95,0.00,,---,0.00,0.00,VWS V14.01,2013-04-21 06:55:00,
2013-04-21 01:56:00,40.7,39.4,30.20,SE,142,0.0,0.0,95,0.00,,---,0.00,0.00,VWS V14.01,2013-04-21 06:56:00,
2013-04-21 01:58:00,40.7,39.4,30.20,SE,142,0.0,0.0,95,0.00,,---,0.00,0.00,VWS V14.01,2013-04-21 06:58:00,
2013-04-21 01:59:00,40.6,39.3,30.20,SE,142,0.0,0.0,95,0.00,,---,0.00,0.00,VWS V14.01,2013-04-21 06:59:00,
2013-04-21 02:01:00,40.5,39.2,30.20,SE,142,0.0,0.0,95,0.00,,---,0.00,0.00,VWS V14.01,2013-04-21 07:01:00,
2013-04-21 02:04:00,40.4,39.1,30.20,SE,142,0.0,0.0,95,0.00,,---,0.00,0.00,VWS V14.01,2013-04-21 07:04:00,
2013-04-21 02:05:00,40.4,39.1,30.20,SE,142,0.0,0.0,95,0.00,,---,0.00,0.00,VWS V14.01,2013-04-21 07:05:00,
2013-04-21 02:07:00,40.4,39.1,30.20,SE,142,0.0,0.0,95,0.00,,---,0.00,0.00,VWS V14.01,2013-04-21 07:07:00,
2013-04-21 02:10:00,40.5,39.2,30.20,SE,142,0.0,0.0,95,0.00,,---,0.00,0.00,VWS V14.01,2013-04-21 07:10:00,
2013-04-21 02:11:00,40.5,39.2,30.20,SE,142,0.0,0.0,95,0.00,,---,0.00,0.00,VWS V14.01,2013-04-21 07:11:00,
2013-04-21 02:13:00,40.6,39.3,30.19,SE,142,0.0,0.0,95,0.00,,---,0.00,0.00,VWS V14.01,2013-04-21 07:13:00,
2013-04-21 02:15:00,40.6,39.3,30.19,SE,142,0.0,0.0,95,0.00,,---,0.00,0.00,VWS V14.01,2013-04-21 07:15:00,
2013-04-21 02:16:00,40.5,39.2,30.19,SE,142,0.0,0.0,95,0.00,,---,0.00,0.00,VWS V14.01,2013-04-21 07:16:00,
2013-04-21 02:18:00,40.4,39.1,30.19,SE,142,0.0,0.0,95,0.00,,---,0.00,0.00,VWS V14.01,2013-04-21 07:18:00,
2013-04-21 02:19:00,40.4,39.1,30.19,SE,142,0.0,0.0,95,0.00,,---,0.00,0.00,VWS V14.01,2013-04-21 07:19:00,
2013-04-21 02:20:00,40.3,39.0,30.19,SE,142,0.0,0.0,95,0.00,,---,0.00,0.00,VWS V14.01,2013-04-21 07:20:00,
2013-04-21 02:21:00,40.2,38.9,30.19,SE,142,0.0,0.0,95,0.00,,---,0.00,0.00,VWS V14.01,2013-04-21 07:21:00,
2013-04-21 02:24:00,40.2,38.9,30.18,SE,142,0.0,0.0,95,0.00,,---,0.00,0.00,VWS V14.01,2013-04-21 07:24:00,
2013-04-21 02:25:00,40.2,38.9,30.19,SE,142,0.0,0.0,95,0.00,,---,0.00,0.00,VWS V14.01,2013-04-21 07:25:00,
2013-04-21 02:27:00,40.1,38.8,30.18,SE,142,0.0,0.0,95,0.00,,---,0.00,0.00,VWS V14.01,2013-04-21 07:27:00,
2013-04-21 02:29:00,40.0,38.7,30.18,SE,142,0.0,0.0,95,0.00,,---,0.00,0.00,VWS V14.01,2013-04-21 07:29:00,
2013-04-21 02:30:00,40.0,38.7,30.18,SE,142,0.0,0.0,95,0.00,,---,0.00,0.00,VWS V14.01,2013-04-21 07:30:00,
2013-04-21 02:31:00,40.0,38.7,30.18,SE,142,0.0,0.0,95,0.00,,---,0.00,0.00,VWS V14.01,2013-04-21 07:31:00,
2013-04-21 02:32:00,40.0,38.7,30.18,SE,142,0.0,0.0,95,0.00,,---,0.00,0.00,VWS V14.01,2013-04-21 07:32:00,
2013-04-21 02:33:00,40.0,38.7,30.18,SE,142,0.0,0.0,95,0.00,,---,0.00,0.00,VWS V14.01,2013-04-21 07:33:00,
2013-04-21 02:35:00,39.9,38.6,30.18,SE,142,0.0,0.0,95,0.00,,---,0.00,0.00,VWS V14.01,2013-04-21 07:35:00,
2013-04-21 02:36:00,39.8,38.5,30.18,SE,142,0.0,0.0,95,0.00,,---,0.00,0.00,VWS V14.01,2013-04-21 07:36:00,
2013-04-21 02:37:00,39.8,38.5,30.18,SE,142,0.0,0.0,95,0.00,,---,0.00,0.00,VWS V14.01,2013-04-21 07:37:00,
2013-04-21 02:39:00,39.9,38.6,30.18,SE,142,0.0,0.0,95,0.00,,---,0.00,0.00,VWS V14.01,2013-04-21 07:39:00,
2013-04-21 02:40:00,39.9,38.6,30.18,SE,142,0.0,0.0,95,0.00,,---,0.00,0.00,VWS V14.01,2013-04-21 07:40:00,
2013-04-21 02:42:00,39.9,38.6,30.18,SE,142,0.0,0.0,95,0.00,,---,0.00,0.00,VWS V14.01,2013-04-21 07:42:00,
2013-04-21 02:45:00,39.9,38.6,30.18,SE,142,0.0,0.0,95,0.00,,---,0.00,0.00,VWS V14.01,2013-04-21 07:45:00,
2013-04-21 02:46:00,39.9,38.6,30.18,SE,142,0.0,0.0,95,0.00,,---,0.00,0.00,VWS V14.01,2013-04-21 07:46:00,
2013-04-21 02:48:00,39.8,38.5,30.17,SE,142,0.0,0.0,95,0.00,,---,0.00,0.00,VWS V14.01,2013-04-21 07:48:00,
2013-04-21 02:49:00,39.8,38.5,30.17,SE,142,0.0,0.0,95,0.00,,---,0.00,0.00,VWS V14.01,2013-04-21 07:49:00,
2013-04-21 02:52:00,39.9,38.6,30.17,SE,142,0.0,0.0,95,0.00,,---,0.00,0.00,VWS V14.01,2013-04-21 07:52:00,
2013-04-21 02:54:00,39.9,38.6,30.17,SE,142,0.0,0.0,95,0.00,,---,0.00,0.00,VWS V14.01,2013-04-21 07:54:00,
2013-04-21 02:55:00,39.9,38.6,30.17,SE,142,0.0,0.0,95,0.00,,---,0.00,0.00,VWS V14.01,2013-04-21 07:55:00,
2013-04-21 02:57:00,39.9,38.6,30.17,SE,142,0.0,0.0,95,0.00,,---,0.00,0.00,VWS V14.01,2013-04-21 07:57:00,
2013-04-21 02:59:00,39.9,38.6,30.17,SE,142,0.0,0.0,95,0.00,,---,0.00,0.00,VWS V14.01,2013-04-21 07:59:00,
2013-04-21 03:01:00,39.9,38.6,30.17,SE,142,0.0,0.0,95,0.00,,---,0.00,0.00,VWS V14.01,2013-04-21 08:01:00,
2013-04-21 03:03:00,39.9,38.6,30.17,SE,142,0.0,0.0,95,0.00,,---,0.00,0.00,VWS V14.01,2013-04-21 08:03:00,
2013-04-21 03:04:00,39.9,38.6,30.17,SE,142,0.0,0.0,95,0.00,,---,0.00,0.00,VWS V14.01,2013-04-21 08:04:00,
2013-04-21 03:07:00,39.8,38.5,30.17,SE,142,0.0,0.0,95,0.00,,---,0.00,0.00,VWS V14.01,2013-04-21 08:07:00,
2013-04-21 03:09:00,39.7,38.4,30.16,SE,142,0.0,0.0,95,0.00,,---,0.00,0.00,VWS V14.01,2013-04-21 08:09:00,
2013-04-21 03:10:00,39.8,38.5,30.16,SE,142,0.0,0.0,95,0.00,,---,0.00,0.00,VWS V14.01,2013-04-21 08:10:00,
2013-04-21 03:11:00,39.8,38.5,30.16,SE,142,0.0,0.0,95,0.00,,---,0.00,0.00,VWS V14.01,2013-04-21 08:11:00,
2013-04-21 03:12:00,39.8,38.5,30.16,SE,142,0.0,0.0,95,0.00,,---,0.00,0.00,VWS V14.01,2013-04-21 08:12:00,
2013-04-21 03:15:00,39.7,38.4,30.16,SE,142,0.0,0.0,95,0.00,,---,0.00,0.00,VWS V14.01,2013-04-21 08:15:00,
2013-04-21 03:16:00,39.8,38.5,30.16,SE,142,0.0,0.0,95,0.00,,---,0.00,0.00,VWS V14.01,2013-04-21 08:16:00,
2013-04-21 03:17:00,39.7,38.4,30.16,SE,142,0.0,0.0,95,0.00,,---,0.00,0.00,VWS V14.01,2013-04-21 08:17:00,
2013-04-21 03:20:00,39.7,38.4,30.16,SE,142,0.0,0.0,95,0.00,,---,0.00,0.00,VWS V14.01,2013-04-21 08:20:00,
2013-04-21 03:21:00,39.7,38.4,30.16,SE,142,0.0,0.0,95,0.00,,---,0.00,0.00,VWS V14.01,2013-04-21 08:21:00,
2013-04-21 03:22:00,39.7,38.4,30.16,SE,142,0.0,0.0,95,0.00,,---,0.00,0.00,VWS V14.01,2013-04-21 08:22:00,
2013-04-21 03:23:00,39.7,38.4,30.16,SE,142,0.0,0.0,95,0.00,,---,0.00,0.00,VWS V14.01,2013-04-21 08:23:00,
2013-04-21 03:26:00,39.8,38.5,30.16,SE,142,0.0,0.0,95,0.00,,---,0.00,0.00,VWS V14.01,2013-04-21 08:26:00,
2013-04-21 03:27:00,39.8,38.5,30.16,SE,142,0.0,0.0,95,0.00,,---,0.00,0.00,VWS V14.01,2013-04-21 08:27:00,
2013-04-21 03:28:00,39.7,38.4,30.15,SE,142,0.0,0.0,95,0.00,,---,0.00,0.00,VWS V14.01,2013-04-21 08:28:00,
2013-04-21 03:29:00,39.6,38.3,30.15,SE,142,0.0,0.0,95,0.00,,---,0.00,0.00,VWS V14.01,2013-04-21 08:29:00,
2013-04-21 03:32:00,39.8,38.5,30.15,SE,142,0.0,0.0,95,0.00,,---,0.00,0.00,VWS V14.01,2013-04-21 08:32:00,
2013-04-21 03:34:00,39.8,38.8,30.15,SE,142,0.0,0.0,96,0.00,,---,0.00,0.00,VWS V14.01,2013-04-21 08:34:00,
2013-04-21 03:35:00,39.8,38.8,30.15,SE,142,0.0,0.0,96,0.00,,---,0.00,0.00,VWS V14.01,2013-04-21 08:35:00,
2013-04-21 03:38:00,39.7,38.4,30.15,SE,142,0.0,0.0,95,0.00,,---,0.00,0.00,VWS V14.01,2013-04-21 08:38:00,
2013-04-21 03:40:00,39.8,38.5,30.15,SE,142,0.0,0.0,95,0.00,,---,0.00,0.00,VWS V14.01,2013-04-21 08:40:00,
2013-04-21 03:41:00,39.8,38.5,30.15,SE,142,0.0,0.0,95,0.00,,---,0.00,0.00,VWS V14.01,2013-04-21 08:41:00,
2013-04-21 03:43:00,39.8,38.5,30.15,SE,142,0.0,0.0,95,0.00,,---,0.00,0.00,VWS V14.01,2013-04-21 08:43:00,
2013-04-21 03:45:00,39.8,38.5,30.15,SE,142,0.0,0.0,95,0.00,,---,0.00,0.00,VWS V14.01,2013-04-21 08:45:00,
2013-04-21 03:46:00,39.8,38.5,30.15,SE,142,0.0,0.0,95,0.00,,---,0.00,0.00,VWS V14.01,2013-04-21 08:46:00,
2013-04-21 03:47:00,39.8,38.5,30.15,SE,142,0.0,0.0,95,0.00,,---,0.00,0.00,VWS V14.01,2013-04-21 08:47:00,
2013-04-21 03:48:00,39.7,38.4,30.15,SE,142,0.0,0.0,95,0.00,,---,0.00,0.00,VWS V14.01,2013-04-21 08:48:00,
2013-04-21 03:49:00,39.7,38.4,30.15,SE,142,0.0,0.0,95,0.00,,---,0.00,0.00,VWS V14.01,2013-04-21 08:49:00,
2013-04-21 03:52:00,39.7,38.4,30.15,SE,142,0.0,0.0,95,0.00,,---,0.00,0.00,VWS V14.01,2013-04-21 08:52:00,
2013-04-21 03:53:00,39.7,38.4,30.16,SE,142,0.0,0.0,95,0.00,,---,0.00,0.00,VWS V14.01,2013-04-21 08:53:00,
2013-04-21 03:54:00,39.7,38.4,30.16,SE,142,0.0,0.0,95,0.00,,---,0.00,0.00,VWS V14.01,2013-04-21 08:54:00,
2013-04-21 03:58:00,39.6,38.3,30.15,SE,142,0.0,0.0,95,0.00,,---,0.00,0.00,VWS V14.01,2013-04-21 08:58:00,
2013-04-21 03:59:00,39.6,38.3,30.15,SE,142,0.0,0.0,95,0.00,,---,0.00,0.00,VWS V14.01,2013-04-21 08:59:00,
2013-04-21 04:02:00,39.3,38.0,30.15,SE,142,0.0,0.0,95,0.00,,---,0.00,0.00,VWS V14.01,2013-04-21 09:02:00,
2013-04-21 04:05:00,39.2,37.9,30.15,SE,142,0.0,0.0,95,0.00,,---,0.00,0.00,VWS V14.01,2013-04-21 09:05:00,
2013-04-21 04:06:00,39.1,37.8,30.15,SE,142,0.0,0.0,95,0.00,,---,0.00,0.00,VWS V14.01,2013-04-21 09:06:00,
2013-04-21 04:10:00,39.1,38.1,30.14,SE,142,0.0,0.0,96,0.00,,---,0.00,0.00,VWS V14.01,2013-04-21 09:10:00,
2013-04-21 04:11:00,39.1,38.1,30.14,SE,142,0.0,0.0,96,0.00,,---,0.00,0.00,VWS V14.01,2013-04-21 09:11:00,
2013-04-21 04:12:00,39.1,38.1,30.14,SE,142,0.0,0.0,96,0.00,,---,0.00,0.00,VWS V14.01,2013-04-21 09:12:00,
2013-04-21 04:16:00,39.1,38.1,30.14,SE,142,0.0,0.0,96,0.00,,---,0.00,0.00,VWS V14.01,2013-04-21 09:16:00,
2013-04-21 04:17:00,39.2,38.2,30.14,SE,142,0.0,0.0,96,0.00,,---,0.00,0.00,VWS V14.01,2013-04-21 09:17:00,
2013-04-21 04:18:00,39.3,38.3,30.14,SE,142,0.0,0.0,96,0.00,,---,0.00,0.00,VWS V14.01,2013-04-21 09:18:00,
2013-04-21 04:22:00,39.3,38.3,30.15,SE,142,0.0,0.0,96,0.00,,---,0.00,0.00,VWS V14.01,2013-04-21 09:22:00,
2013-04-21 04:23:00,39.2,38.2,30.15,SE,142,0.0,0.0,96,0.00,,---,0.00,0.00,VWS V14.01,2013-04-21 09:23:00,
2013-04-21 04:24:00,39.2,37.9,30.15,SE,142,0.0,0.0,95,0.00,,---,0.00,0.00,VWS V14.01,2013-04-21 09:24:00,
2013-04-21 04:28:00,39.2,38.2,30.15,SE,142,0.0,0.0,96,0.00,,---,0.00,0.00,VWS V14.01,2013-04-21 09:28:00,
2013-04-21 04:29:00,39.2,37.9,30.15,SE,142,0.0,0.0,95,0.00,,---,0.00,0.00,VWS V14.01,2013-04-21 09:29:00,
2013-04-21 04:30:00,39.1,37.8,30.16,SE,142,0.0,0.0,95,0.00,,---,0.00,0.00,VWS V14.01,2013-04-21 09:30:00,
2013-04-21 04:32:00,39.0,38.0,30.16,SE,142,0.0,0.0,96,0.00,,---,0.00,0.00,VWS V14.01,2013-04-21 09:32:00,
2013-04-21 04:33:00,38.9,37.6,30.16,SE,142,0.0,0.0,95,0.00,,---,0.00,0.00,VWS V14.01,2013-04-21 09:33:00,
2013-04-21 04:34:00,38.7,37.4,30.16,SE,142,0.0,0.0,95,0.00,,---,0.00,0.00,VWS V14.01,2013-04-21 09:34:00,
2013-04-21 04:35:00,38.7,37.4,30.16,SE,142,0.0,0.0,95,0.00,,---,0.00,0.00,VWS V14.01,2013-04-21 09:35:00,
2013-04-21 04:36:00,38.6,37.3,30.16,SE,142,0.0,0.0,95,0.00,,---,0.00,0.00,VWS V14.01,2013-04-21 09:36:00,
2013-04-21 04:37:00,38.5,37.2,30.16,SE,142,0.0,0.0,95,0.00,,---,0.00,0.00,VWS V14.01,2013-04-21 09:37:00,
2013-04-21 04:38:00,38.4,37.1,30.16,SE,142,0.0,0.0,95,0.00,,---,0.00,0.00,VWS V14.01,2013-04-21 09:38:00,
2013-04-21 04:40:00,38.3,37.0,30.16,SE,142,0.0,0.0,95,0.00,,---,0.00,0.00,VWS V14.01,2013-04-21 09:40:00,
2013-04-21 04:43:00,38.2,37.2,30.17,SE,142,0.0,0.0,96,0.00,,---,0.00,0.00,VWS V14.01,2013-04-21 09:43:00,
2013-04-21 04:44:00,38.2,37.2,30.17,SE,142,0.0,0.0,96,0.00,,---,0.00,0.00,VWS V14.01,2013-04-21 09:44:00,
2013-04-21 04:46:00,38.2,37.2,30.17,SE,142,0.0,0.0,96,0.00,,---,0.00,0.00,VWS V14.01,2013-04-21 09:46:00,
2013-04-21 04:48:00,38.2,36.9,30.18,SE,142,0.0,0.0,95,0.00,,---,0.00,0.00,VWS V14.01,2013-04-21 09:48:00,
2013-04-21 04:49:00,38.2,36.9,30.18,SE,142,0.0,0.0,95,0.00,,---,0.00,0.00,VWS V14.01,2013-04-21 09:49:00,
2013-04-21 04:51:00,38.2,37.2,30.18,SE,142,0.0,0.0,96,0.00,,---,0.00,0.00,VWS V14.01,2013-04-21 09:51:00,
2013-04-21 04:55:00,38.3,37.3,30.18,SE,142,0.0,0.0,96,0.00,,---,0.00,0.00,VWS V14.01,2013-04-21 09:55:00,
2013-04-21 04:56:00,38.3,37.3,30.18,SE,142,0.0,0.0,96,0.00,,---,0.00,0.00,VWS V14.01,2013-04-21 09:56:00,
2013-04-21 04:57:00,38.3,37.3,30.18,SE,142,0.0,0.0,96,0.00,,---,0.00,0.00,VWS V14.01,2013-04-21 09:57:00,
2013-04-21 04:59:00,38.3,37.3,30.18,SE,142,0.0,0.0,96,0.00,,---,0.00,0.00,VWS V14.01,2013-04-21 09:59:00,
2013-04-21 05:02:00,38.2,37.2,30.19,SE,142,0.0,0.0,96,0.00,,---,0.00,0.00,VWS V14.01,2013-04-21 10:02:00,
2013-04-21 05:03:00,38.2,37.2,30.19,SE,142,0.0,0.0,96,0.00,,---,0.00,0.00,VWS V14.01,2013-04-21 10:03:00,
2013-04-21 05:04:00,38.2,37.2,30.19,SE,142,0.0,0.0,96,0.00,,---,0.00,0.00,VWS V14.01,2013-04-21 10:04:00,
2013-04-21 05:05:00,38.2,37.2,30.19,SE,142,0.0,0.0,96,0.00,,---,0.00,0.00,VWS V14.01,2013-04-21 10:05:00,
2013-04-21 05:08:00,38.2,37.2,30.19,SE,142,0.0,0.0,96,0.00,,---,0.00,0.00,VWS V14.01,2013-04-21 10:08:00,
2013-04-21 05:09:00,38.1,37.1,30.19,SE,142,0.0,0.0,96,0.00,,---,0.00,0.00,VWS V14.01,2013-04-21 10:09:00,
2013-04-21 05:10:00,38.1,37.1,30.19,SE,142,0.0,0.0,96,0.00,,---,0.00,0.00,VWS V14.01,2013-04-21 10:10:00,
2013-04-21 05:11:00,38.0,37.0,30.19,SE,142,0.0,0.0,96,0.00,,---,0.00,0.00,VWS V14.01,2013-04-21 10:11:00,
2013-04-21 05:14:00,37.9,36.9,30.19,SE,142,0.0,0.0,96,0.00,,---,0.00,0.00,VWS V14.01,2013-04-21 10:14:00,
2013-04-21 05:16:00,37.9,36.9,30.19,SE,142,0.0,0.0,96,0.00,,---,0.00,0.00,VWS V14.01,2013-04-21 10:16:00,
2013-04-21 05:17:00,37.8,36.8,30.19,SE,142,0.0,0.0,96,0.00,,---,0.00,0.00,VWS V14.01,2013-04-21 10:17:00,
2013-04-21 05:19:00,37.8,36.8,30.19,SE,142,0.0,0.0,96,0.00,,---,0.00,0.00,VWS V14.01,2013-04-21 10:19:00,
2013-04-21 05:20:00,37.9,36.9,30.19,SE,142,0.0,0.0,96,0.00,,---,0.00,0.00,VWS V14.01,2013-04-21 10:20:00,
2013-04-21 05:22:00,37.9,36.9,30.19,SE,142,0.0,0.0,96,0.00,,---,0.00,0.00,VWS V14.01,2013-04-21 10:22:00,
2013-04-21 05:23:00,37.9,36.9,30.19,SE,142,0.0,0.0,96,0.00,,---,0.00,0.00,VWS V14.01,2013-04-21 10:23:00,
2013-04-21 05:25:00,38.0,37.0,30.19,SE,142,0.0,0.0,96,0.00,,---,0.00,0.00,VWS V14.01,2013-04-21 10:25:00,
2013-04-21 05:28:00,38.0,37.0,30.19,SE,142,0.0,0.0,96,0.00,,---,0.00,0.00,VWS V14.01,2013-04-21 10:28:00,
2013-04-21 05:29:00,38.0,37.0,30.19,SE,142,0.0,0.0,96,0.00,,---,0.00,0.00,VWS V14.01,2013-04-21 10:29:00,
2013-04-21 05:31:00,38.0,37.0,30.19,SE,142,0.0,0.0,96,0.00,,---,0.00,0.00,VWS V14.01,2013-04-21 10:31:00,
2013-04-21 05:34:00,38.0,37.0,30.19,SE,142,0.0,0.0,96,0.00,,---,0.00,0.00,VWS V14.01,2013-04-21 10:34:00,
2013-04-21 05:35:00,38.1,37.1,30.19,SE,142,0.0,0.0,96,0.00,,---,0.00,0.00,VWS V14.01,2013-04-21 10:35:00,
2013-04-21 05:36:00,38.1,37.1,30.19,SE,142,0.0,0.0,96,0.00,,---,0.00,0.00,VWS V14.01,2013-04-21 10:36:00,
2013-04-21 05:37:00,38.1,37.1,30.19,SE,142,0.0,0.0,96,0.00,,---,0.00,0.00,VWS V14.01,2013-04-21 10:37:00,
2013-04-21 05:39:00,38.2,37.2,30.19,SE,142,0.0,0.0,96,0.00,,---,0.00,0.00,VWS V14.01,2013-04-21 10:39:00,
2013-04-21 05:40:00,38.2,37.2,30.19,SE,142,0.0,0.0,96,0.00,,---,0.00,0.00,VWS V14.01,2013-04-21 10:40:00,
2013-04-21 05:41:00,38.2,37.2,30.19,SE,142,0.0,0.0,96,0.00,,---,0.00,0.00,VWS V14.01,2013-04-21 10:41:00,
2013-04-21 05:43:00,38.1,37.1,30.19,SE,142,0.0,0.0,96,0.00,,---,0.00,0.00,VWS V14.01,2013-04-21 10:43:00,
2013-04-21 05:44:00,38.1,37.1,30.19,SE,142,0.0,0.0,96,0.00,,---,0.00,0.00,VWS V14.01,2013-04-21 10:44:00,
2013-04-21 05:45:00,38.1,37.1,30.19,SE,142,0.0,0.0,96,0.00,,---,0.00,0.00,VWS V14.01,2013-04-21 10:45:00,
2013-04-21 05:47:00,38.1,37.1,30.19,SE,142,0.0,0.0,96,0.00,,---,0.00,0.00,VWS V14.01,2013-04-21 10:47:00,
2013-04-21 05:48:00,38.1,37.1,30.20,SE,142,0.0,0.0,96,0.00,,---,0.00,0.00,VWS V14.01,2013-04-21 10:48:00,
2013-04-21 05:49:00,38.2,37.2,30.20,SE,142,0.0,0.0,96,0.00,,---,0.00,0.00,VWS V14.01,2013-04-21 10:49:00,
2013-04-21 05:50:00,38.1,37.1,30.20,SE,142,0.0,0.0,96,0.00,,---,0.00,0.00,VWS V14.01,2013-04-21 10:50:00,
2013-04-21 05:52:00,38.1,37.1,30.20,SE,142,0.0,0.0,96,0.00,,---,0.00,0.00,VWS V14.01,2013-04-21 10:52:00,
2013-04-21 05:54:00,38.1,37.1,30.20,SE,142,0.0,0.0,96,0.00,,---,0.00,0.00,VWS V14.01,2013-04-21 10:54:00,
2013-04-21 05:55:00,38.1,37.1,30.20,SE,142,0.0,0.0,96,0.00,,---,0.00,0.00,VWS V14.01,2013-04-21 10:55:00,
2013-04-21 05:56:00,38.1,37.1,30.20,SE,142,0.0,0.0,96,0.00,,---,0.00,0.00,VWS V14.01,2013-04-21 10:56:00,
2013-04-21 05:59:00,38.0,37.0,30.20,SE,142,0.0,0.0,96,0.00,,---,0.00,0.00,VWS V14.01,2013-04-21 10:59:00,
2013-04-21 06:01:00,38.0,37.0,30.20,SE,142,0.0,0.0,96,0.00,,---,0.00,0.00,VWS V14.01,2013-04-21 11:01:00,
2013-04-21 06:02:00,38.0,37.0,30.20,SE,142,0.0,0.0,96,0.00,,---,0.00,0.00,VWS V14.01,2013-04-21 11:02:00,
2013-04-21 06:05:00,38.0,37.0,30.20,SE,142,0.0,0.0,96,0.00,,---,0.00,0.00,VWS V14.01,2013-04-21 11:05:00,
2013-04-21 06:06:00,38.0,37.0,30.20,SE,142,0.0,0.0,96,0.00,,---,0.00,0.00,VWS V14.01,2013-04-21 11:06:00,
2013-04-21 06:07:00,38.0,37.0,30.20,SE,142,0.0,0.0,96,0.00,,---,0.00,0.00,VWS V14.01,2013-04-21 11:07:00,
2013-04-21 06:10:00,38.0,37.0,30.20,SE,142,0.0,0.0,96,0.00,,---,0.00,0.00,VWS V14.01,2013-04-21 11:10:00,
2013-04-21 06:11:00,38.0,37.0,30.20,SE,142,0.0,0.0,96,0.00,,---,0.00,0.00,VWS V14.01,2013-04-21 11:11:00,
2013-04-21 06:13:00,38.0,37.0,30.20,SE,142,0.0,0.0,96,0.00,,---,0.00,0.00,VWS V14.01,2013-04-21 11:13:00,
2013-04-21 06:15:00,37.9,36.9,30.20,SE,142,0.0,0.0,96,0.00,,---,0.00,0.00,VWS V14.01,2013-04-21 11:15:00,
2013-04-21 06:16:00,37.9,36.9,30.21,SE,142,0.0,0.0,96,0.00,,---,0.00,0.00,VWS V14.01,2013-04-21 11:16:00,
2013-04-21 06:19:00,37.9,36.9,30.21,SE,142,0.0,0.0,96,0.00,,---,0.00,0.00,VWS V14.01,2013-04-21 11:19:00,
2013-04-21 06:21:00,37.8,36.8,30.21,SE,142,0.0,0.0,96,0.00,,---,0.00,0.00,VWS V14.01,2013-04-21 11:21:00,
2013-04-21 06:22:00,37.8,36.8,30.21,SE,142,0.0,0.0,96,0.00,,---,0.00,0.00,VWS V14.01,2013-04-21 11:22:00,
2013-04-21 06:24:00,37.8,36.8,30.21,SE,142,0.0,0.0,96,0.00,,---,0.00,0.00,VWS V14.01,2013-04-21 11:24:00,
2013-04-21 06:26:00,37.8,36.8,30.21,SE,142,0.0,0.0,96,0.00,,---,0.00,0.00,VWS V14.01,2013-04-21 11:26:00,
2013-04-21 06:27:00,37.8,36.8,30.21,SE,142,0.0,0.0,96,0.00,,---,0.00,0.00,VWS V14.01,2013-04-21 11:27:00,
2013-04-21 06:28:00,37.8,36.8,30.21,SE,142,0.0,0.0,96,0.00,,---,0.00,0.00,VWS V14.01,2013-04-21 11:28:00,
2013-04-21 06:29:00,37.8,36.8,30.21,SE,142,0.0,0.0,96,0.00,,---,0.00,0.00,VWS V14.01,2013-04-21 11:29:00,
2013-04-21 06:30:00,37.8,36.8,30.21,SE,142,0.0,0.0,96,0.00,,---,0.00,0.00,VWS V14.01,2013-04-21 11:30:00,
2013-04-21 06:32:00,37.8,36.8,30.21,SE,142,0.0,0.0,96,0.00,,---,0.00,0.00,VWS V14.01,2013-04-21 11:32:00,
2013-04-21 06:33:00,37.8,36.8,30.21,SE,142,0.0,0.0,96,0.00,,---,0.00,0.00,VWS V14.01,2013-04-21 11:33:00,
2013-04-21 06:35:00,37.7,36.7,30.21,SE,142,0.0,0.0,96,0.00,,---,0.00,0.00,VWS V14.01,2013-04-21 11:35:00,
2013-04-21 06:36:00,37.7,36.7,30.21,SE,142,0.0,0.0,96,0.00,,---,0.00,0.00,VWS V14.01,2013-04-21 11:36:00,
2013-04-21 06:37:00,37.8,36.8,30.21,SE,142,0.0,0.0,96,0.00,,---,0.00,0.00,VWS V14.01,2013-04-21 11:37:00,
2013-04-21 06:38:00,37.7,36.7,30.21,SE,142,0.0,0.0,96,0.00,,---,0.00,0.00,VWS V14.01,2013-04-21 11:38:00,
2013-04-21 06:40:00,37.7,36.7,30.21,SE,142,0.0,0.0,96,0.00,,---,0.00,0.00,VWS V14.01,2013-04-21 11:40:00,
2013-04-21 06:42:00,37.7,36.7,30.21,SE,142,0.0,0.0,96,0.00,,---,0.00,0.00,VWS V14.01,2013-04-21 11:42:00,
2013-04-21 06:43:00,37.7,36.7,30.21,SE,142,0.0,0.0,96,0.00,,---,0.00,0.00,VWS V14.01,2013-04-21 11:43:00,
2013-04-21 06:44:00,37.7,36.7,30.21,SE,142,0.0,0.0,96,0.00,,---,0.00,0.00,VWS V14.01,2013-04-21 11:44:00,
2013-04-21 06:47:00,37.7,36.7,30.21,SE,142,0.0,0.0,96,0.00,,---,0.00,5.00,VWS V14.01,2013-04-21 11:47:00,
2013-04-21 06:49:00,37.7,36.7,30.21,SE,142,0.0,0.0,96,0.00,,---,0.00,5.00,VWS V14.01,2013-04-21 11:49:00,
2013-04-21 06:51:00,37.6,36.6,30.21,SE,142,0.0,0.0,96,0.00,,---,0.00,7.00,VWS V14.01,2013-04-21 11:51:00,
2013-04-21 06:52:00,37.6,36.6,30.21,SE,142,0.0,0.0,96,0.00,,---,0.00,7.00,VWS V14.01,2013-04-21 11:52:00,
2013-04-21 06:55:00,37.6,36.6,30.21,SE,142,0.0,0.0,96,0.00,,---,0.00,9.00,VWS V14.01,2013-04-21 11:55:00,
2013-04-21 06:56:00,37.6,36.6,30.21,SE,142,0.0,0.0,96,0.00,,---,0.00,11.00,VWS V14.01,2013-04-21 11:56:00,
2013-04-21 06:58:00,37.6,36.6,30.21,SE,142,0.0,0.0,96,0.00,,---,0.00,12.00,VWS V14.01,2013-04-21 11:58:00,
2013-04-21 07:01:00,37.5,36.5,30.21,SE,142,0.0,0.0,96,0.00,,---,0.00,12.00,VWS V14.01,2013-04-21 12:01:00,
2013-04-21 07:02:00,37.5,36.5,30.21,SE,142,0.0,0.0,96,0.00,,---,0.00,14.00,VWS V14.01,2013-04-21 12:02:00,
2013-04-21 07:03:00,37.5,36.5,30.21,SE,142,0.0,0.0,96,0.00,,---,0.00,14.00,VWS V14.01,2013-04-21 12:03:00,
2013-04-21 07:04:00,37.5,36.5,30.21,SE,142,0.0,0.0,96,0.00,,---,0.00,16.00,VWS V14.01,2013-04-21 12:04:00,
2013-04-21 07:07:00,37.5,36.5,30.22,SE,142,0.0,0.0,96,0.00,,---,0.00,18.00,VWS V14.01,2013-04-21 12:07:00,
2013-04-21 07:09:00,37.5,36.5,30.22,SE,142,0.0,0.0,96,0.00,,---,0.00,19.00,VWS V14.01,2013-04-21 12:09:00,
2013-04-21 07:10:00,37.5,36.5,30.21,SE,142,0.0,0.0,96,0.00,,---,0.00,19.00,VWS V14.01,2013-04-21 12:10:00,
2013-04-21 07:11:00,37.5,36.5,30.22,SE,142,0.0,0.0,96,0.00,,---,0.00,19.00,VWS V14.01,2013-04-21 12:11:00,
2013-04-21 07:13:00,37.5,36.5,30.22,SE,142,0.0,0.0,96,0.00,,---,0.00,21.00,VWS V14.01,2013-04-21 12:13:00,
2013-04-21 07:15:00,37.6,36.6,30.22,SE,142,0.0,0.0,96,0.00,,---,0.00,21.00,VWS V14.01,2013-04-21 12:15:00,
2013-04-21 07:16:00,37.6,36.6,30.22,SE,142,0.0,0.0,96,0.00,,---,0.00,23.00,VWS V14.01,2013-04-21 12:16:00,
2013-04-21 07:17:00,37.6,36.6,30.22,SE,142,0.0,0.0,96,0.00,,---,0.00,23.00,VWS V14.01,2013-04-21 12:17:00,
2013-04-21 07:18:00,37.6,36.6,30.22,SE,142,0.0,0.0,96,0.00,,---,0.00,23.00,VWS V14.01,2013-04-21 12:18:00,
2013-04-21 07:19:00,37.6,36.6,30.22,SE,142,0.0,0.0,96,0.00,,---,0.00,25.00,VWS V14.01,2013-04-21 12:19:00,
2013-04-21 07:21:00,37.6,36.6,30.22,SE,142,0.0,0.0,96,0.00,,---,0.00,25.00,VWS V14.01,2013-04-21 12:21:00,
2013-04-21 07:23:00,37.6,36.6,30.22,SE,142,0.0,0.0,96,0.00,,---,0.00,26.00,VWS V14.01,2013-04-21 12:23:00,
2013-04-21 07:24:00,37.6,36.6,30.22,SE,142,0.0,0.0,96,0.00,,---,0.00,26.00,VWS V14.01,2013-04-21 12:24:00,
2013-04-21 07:25:00,37.7,36.7,30.22,SE,142,0.0,0.0,96,0.00,,---,0.00,26.00,VWS V14.01,2013-04-21 12:25:00,
2013-04-21 07:26:00,37.7,36.7,30.22,SE,142,0.0,0.0,96,0.00,,---,0.00,28.00,VWS V14.01,2013-04-21 12:26:00,
2013-04-21 07:27:00,37.7,36.7,30.22,SE,142,0.0,0.0,96,0.00,,---,0.00,28.00,VWS V14.01,2013-04-21 12:27:00,
2013-04-21 07:29:00,37.8,36.8,30.22,SE,142,0.0,0.0,96,0.00,,---,0.00,30.00,VWS V14.01,2013-04-21 12:29:00,
2013-04-21 07:30:00,37.8,36.8,30.22,SE,142,0.0,0.0,96,0.00,,---,0.00,30.00,VWS V14.01,2013-04-21 12:30:00,
2013-04-21 07:31:00,37.8,36.8,30.22,SE,142,0.0,0.0,96,0.00,,---,0.00,30.00,VWS V14.01,2013-04-21 12:31:00,
2013-04-21 07:32:00,37.8,36.8,30.22,SE,142,0.0,0.0,96,0.00,,---,0.00,30.00,VWS V14.01,2013-04-21 12:32:00,
2013-04-21 07:35:00,37.9,36.9,30.22,SE,142,0.0,0.0,96,0.00,,---,0.00,32.00,VWS V14.01,2013-04-21 12:35:00,
2013-04-21 07:37:00,37.9,36.9,30.22,SE,142,0.0,0.0,96,0.00,,---,0.00,33.00,VWS V14.01,2013-04-21 12:37:00,
2013-04-21 07:40:00,38.0,37.0,30.22,SE,142,0.0,0.0,96,0.00,,---,0.00,35.00,VWS V14.01,2013-04-21 12:40:00,
2013-04-21 07:41:00,38.1,37.1,30.22,SE,142,0.0,0.0,96,0.00,,---,0.00,35.00,VWS V14.01,2013-04-21 12:41:00,
2013-04-21 07:42:00,38.2,37.2,30.22,SE,142,0.0,0.0,96,0.00,,---,0.00,35.00,VWS V14.01,2013-04-21 12:42:00,
2013-04-21 07:44:00,38.2,37.2,30.23,SE,142,0.0,0.0,96,0.00,,---,0.00,35.00,VWS V14.01,2013-04-21 12:44:00,
2013-04-21 07:46:00,38.3,37.3,30.23,SE,142,0.0,0.0,96,0.00,,---,0.00,37.00,VWS V14.01,2013-04-21 12:46:00,
2013-04-21 07:48:00,38.4,37.4,30.23,SE,142,0.0,0.0,96,0.00,,---,0.00,40.00,VWS V14.01,2013-04-21 12:48:00,
2013-04-21 07:49:00,38.5,37.5,30.23,SE,142,0.0,0.0,96,0.00,,---,0.00,39.00,VWS V14.01,2013-04-21 12:49:00,
2013-04-21 07:50:00,38.5,37.5,30.23,SE,142,0.0,0.0,96,0.00,,---,0.00,39.00,VWS V14.01,2013-04-21 12:50:00,
2013-04-21 07:51:00,38.6,37.6,30.23,SE,142,0.0,0.0,96,0.00,,---,0.00,39.00,VWS V14.01,2013-04-21 12:51:00,
2013-04-21 07:54:00,38.8,38.0,30.23,SE,142,0.0,0.0,97,0.00,,---,0.00,39.00,VWS V14.01,2013-04-21 12:54:00,
2013-04-21 07:56:00,38.9,38.1,30.23,SE,142,0.0,0.0,97,0.00,,---,0.00,40.00,VWS V14.01,2013-04-21 12:56:00,
2013-04-21 07:57:00,39.0,38.0,30.23,SE,142,0.0,0.0,96,0.00,,---,0.00,42.00,VWS V14.01,2013-04-21 12:57:00,
2013-04-21 07:59:00,39.4,38.6,30.23,SE,142,0.0,0.0,97,0.00,,---,0.00,54.00,VWS V14.01,2013-04-21 12:59:00,
2013-04-21 08:01:00,39.6,38.8,30.23,SE,142,0.0,0.0,97,0.00,,---,0.00,47.00,VWS V14.01,2013-04-21 13:01:00,
2013-04-21 08:03:00,39.8,39.0,30.23,SE,142,0.0,0.0,97,0.00,,---,0.00,42.00,VWS V14.01,2013-04-21 13:03:00,
2013-04-21 08:05:00,40.2,39.4,30.23,SE,142,0.0,0.0,97,0.00,,---,0.00,44.00,VWS V14.01,2013-04-21 13:05:00,
2013-04-21 08:06:00,40.4,39.6,30.23,SE,142,0.0,0.0,97,0.00,,---,0.00,44.00,VWS V14.01,2013-04-21 13:06:00,
2013-04-21 08:09:00,41.0,40.2,30.23,SE,142,0.0,0.0,97,0.00,,---,0.00,44.00,VWS V14.01,2013-04-21 13:09:00,
2013-04-21 08:10:00,41.2,40.4,30.23,SE,142,0.0,0.0,97,0.00,,---,0.00,46.00,VWS V14.01,2013-04-21 13:10:00,
2013-04-21 08:12:00,41.6,40.8,30.23,SE,142,0.0,0.0,97,0.00,,---,0.00,46.00,VWS V14.01,2013-04-21 13:12:00,
2013-04-21 08:13:00,41.8,41.0,30.23,SE,142,1.0,1.0,97,0.00,,---,0.00,46.00,VWS V14.01,2013-04-21 13:13:00,
2013-04-21 08:15:00,42.3,41.5,30.23,SE,142,0.0,1.0,97,0.00,,---,0.00,47.00,VWS V14.01,2013-04-21 13:15:00,
2013-04-21 08:16:00,42.4,41.6,30.23,SE,142,0.0,1.0,97,0.00,,---,0.00,49.00,VWS V14.01,2013-04-21 13:16:00,
2013-04-21 08:17:00,42.6,41.8,30.23,SE,142,0.0,1.0,97,0.00,,---,0.00,49.00,VWS V14.01,2013-04-21 13:17:00,
2013-04-21 08:19:00,42.8,42.0,30.23,SE,142,0.0,1.0,97,0.00,,---,0.00,62.00,VWS V14.01,2013-04-21 13:19:00,
2013-04-21 08:21:00,43.2,42.4,30.23,SE,142,0.0,1.0,97,0.00,,---,0.00,58.00,VWS V14.01,2013-04-21 13:21:00,
2013-04-21 08:22:00,43.4,42.6,30.23,SE,142,0.0,1.0,97,0.00,,---,0.00,56.00,VWS V14.01,2013-04-21 13:22:00,
2013-04-21 08:23:00,43.6,42.8,30.23,SE,142,0.0,1.0,97,0.00,,---,0.00,56.00,VWS V14.01,2013-04-21 13:23:00,
2013-04-21 08:25:00,43.9,43.1,30.23,SE,142,0.0,1.0,97,0.00,,---,0.00,53.00,VWS V14.01,2013-04-21 13:25:00,
2013-04-21 08:27:00,44.2,43.4,30.23,SE,142,0.0,1.0,97,0.00,,---,0.00,53.00,VWS V14.01,2013-04-21 13:27:00,
2013-04-21 08:28:00,44.2,43.4,30.23,SE,142,0.0,1.0,97,0.00,,---,0.00,53.00,VWS V14.01,2013-04-21 13:28:00,
2013-04-21 08:30:00,44.6,43.8,30.23,SE,142,0.0,1.0,97,0.00,,---,0.00,54.00,VWS V14.01,2013-04-21 13:30:00,
2013-04-21 08:31:00,44.7,43.9,30.23,SE,142,0.0,1.0,97,0.00,,---,0.00,54.00,VWS V14.01,2013-04-21 13:31:00,
2013-04-21 08:33:00,45.0,44.2,30.23,SE,142,0.0,1.0,97,0.00,,---,0.00,90.00,VWS V14.01,2013-04-21 13:33:00,
2013-04-21 08:35:00,45.3,44.5,30.23,SE,142,0.0,1.0,97,0.00,,---,0.00,123.00,VWS V14.01,2013-04-21 13:35:00,
2013-04-21 08:36:00,45.4,44.6,30.23,SE,142,0.0,1.0,97,0.00,,---,0.00,158.00,VWS V14.01,2013-04-21 13:36:00,
2013-04-21 08:37:00,45.6,45.1,30.23,SE,142,0.0,1.0,98,0.00,,---,0.00,202.00,VWS V14.01,2013-04-21 13:37:00,
2013-04-21 08:38:00,45.8,45.3,30.23,SE,142,0.0,1.0,98,0.00,,---,0.00,232.00,VWS V14.01,2013-04-21 13:38:00,
2013-04-21 08:41:00,46.2,45.4,30.23,SE,142,0.0,1.0,97,0.00,,---,0.00,336.00,VWS V14.01,2013-04-21 13:41:00,
2013-04-21 08:42:00,46.6,46.1,30.23,SE,142,0.0,1.0,98,0.00,,---,0.00,339.00,VWS V14.01,2013-04-21 13:42:00,
2013-04-21 08:44:00,48.6,48.1,30.23,SE,142,0.0,1.0,98,0.00,,---,0.00,301.00,VWS V14.01,2013-04-21 13:44:00,
2013-04-21 08:47:00,49.7,49.2,30.24,WSW,241,0.0,3.0,98,0.00,,---,0.00,204.00,VWS V14.01,2013-04-21 13:47:00,
2013-04-21 08:48:00,49.9,49.4,30.24,WSW,241,0.0,3.0,98,0.00,,---,0.00,265.00,VWS V14.01,2013-04-21 13:48:00,
2013-04-21 08:50:00,50.5,50.0,30.24,WSW,241,1.0,3.0,98,0.00,,---,0.00,353.00,VWS V14.01,2013-04-21 13:50:00,
2013-04-21 08:51:00,50.6,50.1,30.24,WSW,241,0.0,3.0,98,0.00,,---,0.00,371.00,VWS V14.01,2013-04-21 13:51:00,
2013-04-21 08:52:00,50.9,50.4,30.24,WSW,241,0.0,3.0,98,0.00,,---,0.00,376.00,VWS V14.01,2013-04-21 13:52:00,
2013-04-21 08:54:00,51.4,50.9,30.24,WSW,241,0.0,3.0,98,0.00,,---,0.00,381.00,VWS V14.01,2013-04-21 13:54:00,
2013-04-21 08:55:00,51.9,51.1,30.24,West,281,0.0,3.0,97,0.00,,---,0.00,387.00,VWS V14.01,2013-04-21 13:55:00,
2013-04-21 08:56:00,52.1,51.3,30.24,West,281,0.0,3.0,97,0.00,,---,0.00,392.00,VWS V14.01,2013-04-21 13:56:00,
2013-04-21 08:57:00,52.3,51.5,30.24,SSW,210,0.0,3.0,97,0.00,,---,0.00,396.00,VWS V14.01,2013-04-21 13:57:00,
2013-04-21 08:58:00,52.6,51.8,30.24,NNW,344,0.0,3.0,97,0.00,,---,0.00,401.00,VWS V14.01,2013-04-21 13:58:00,
2013-04-21 08:59:00,53.0,52.2,30.24,North,350,2.0,3.0,97,0.00,,---,0.00,404.00,VWS V14.01,2013-04-21 13:59:00,
2013-04-21 09:02:00,53.7,52.3,30.24,ENE,58,1.0,2.0,95,0.00,,---,0.00,415.00,VWS V14.01,2013-04-21 14:02:00,
2013-04-21 09:03:00,54.1,52.7,30.24,NNW,331,0.0,3.0,95,0.00,,---,0.00,422.00,VWS V14.01,2013-04-21 14:03:00,
2013-04-21 09:05:00,54.4,52.7,30.24,NNW,331,0.0,3.0,94,0.00,,---,0.00,427.00,VWS V14.01,2013-04-21 14:05:00,
2013-04-21 09:07:00,55.1,53.1,30.24,NNW,331,0.0,3.0,93,0.00,,---,0.00,439.00,VWS V14.01,2013-04-21 14:07:00,
2013-04-21 09:08:00,55.3,53.0,30.24,NNW,331,0.0,3.0,92,0.00,,---,0.00,441.00,VWS V14.01,2013-04-21 14:08:00,
2013-04-21 09:09:00,55.5,52.9,30.24,NNW,327,2.0,3.0,91,0.00,,---,0.00,443.00,VWS V14.01,2013-04-21 14:09:00,
2013-04-21 09:11:00,56.0,52.8,30.24,WNW,286,0.0,3.0,89,0.00,,---,0.00,454.00,VWS V14.01,2013-04-21 14:11:00,
2013-04-21 09:13:00,56.6,52.5,30.24,North,349,0.0,5.0,86,0.00,,---,0.00,471.00,VWS V14.01,2013-04-21 14:13:00,
2013-04-21 09:14:00,56.7,52.6,30.24,North,349,0.0,5.0,86,0.00,,---,0.00,478.00,VWS V14.01,2013-04-21 14:14:00,
2013-04-21 09:15:00,56.7,52.6,30.24,North,349,0.0,5.0,86,0.00,,---,0.00,485.00,VWS V14.01,2013-04-21 14:15:00,
2013-04-21 09:16:00,57.0,52.5,30.24,NW,324,0.0,5.0,85,0.00,,---,0.00,489.00,VWS V14.01,2013-04-21 14:16:00,
2013-04-21 09:19:00,57.6,52.8,30.24,South,171,0.0,5.0,84,0.00,,---,0.00,501.00,VWS V14.01,2013-04-21 14:19:00,
2013-04-21 09:20:00,57.9,52.5,30.24,WNW,303,0.0,5.0,82,0.00,,---,0.00,508.00,VWS V14.01,2013-04-21 14:20:00,
2013-04-21 09:21:00,58.0,52.5,30.24,WNW,303,0.0,5.0,82,0.00,,---,0.00,513.00,VWS V14.01,2013-04-21 14:21:00,
2013-04-21 09:26:00,59.0,52.2,30.24,North,355,0.0,5.0,78,0.00,,---,0.00,533.00,VWS V14.01,2013-04-21 14:26:00,
2013-04-21 09:27:00,59.2,52.7,30.24,North,355,0.0,5.0,79,0.00,,---,0.00,534.00,VWS V14.01,2013-04-21 14:27:00,
2013-04-21 09:28:00,59.4,52.9,30.24,North,355,0.0,5.0,79,0.00,,---,0.00,538.00,VWS V14.01,2013-04-21 14:28:00,
2013-04-21 09:32:00,60.5,53.3,30.24,SSW,194,0.0,3.0,77,0.00,,---,0.00,555.00,VWS V14.01,2013-04-21 14:32:00,
2013-04-21 09:33:00,60.5,53.3,30.24,SSW,194,0.0,3.0,77,0.00,,---,0.00,555.00,VWS V14.01,2013-04-21 14:33:00,
2013-04-21 09:34:00,60.7,53.1,30.24,SSW,194,0.0,3.0,76,0.00,,---,0.00,559.00,VWS V14.01,2013-04-21 14:34:00,
2013-04-21 09:38:00,61.5,53.2,30.24,SSE,167,1.0,3.0,74,0.00,,---,0.00,571.00,VWS V14.01,2013-04-21 14:38:00,
2013-04-21 09:39:00,61.3,52.2,30.24,NNE,13,0.0,3.0,72,0.00,,---,0.00,578.00,VWS V14.01,2013-04-21 14:39:00,
2013-04-21 09:41:00,61.3,52.6,30.24,NNE,13,0.0,3.0,73,0.00,,---,0.00,582.00,VWS V14.01,2013-04-21 14:41:00,
2013-04-21 09:44:00,61.9,52.4,30.24,NW,316,2.0,3.0,71,0.00,,---,0.00,594.00,VWS V14.01,2013-04-21 14:44:00,
2013-04-21 09:46:00,62.3,53.9,30.24,North,355,1.0,3.0,74,0.00,,---,0.00,603.00,VWS V14.01,2013-04-21 14:46:00,
2013-04-21 09:47:00,62.7,53.9,30.24,North,355,0.0,3.0,73,0.00,,---,0.00,603.00,VWS V14.01,2013-04-21 14:47:00,
2013-04-21 09:49:00,63.1,52.8,30.24,WNW,288,0.0,3.0,69,0.00,,---,0.00,617.00,VWS V14.01,2013-04-21 14:49:00,
2013-04-21 09:50:00,63.1,52.8,30.24,WNW,286,1.0,3.0,69,0.00,,---,0.00,617.00,VWS V14.01,2013-04-21 14:50:00,
2013-04-21 09:51:00,63.0,52.7,30.24,NNE,17,2.0,3.0,69,0.00,,---,0.00,622.00,VWS V14.01,2013-04-21 14:51:00,
2013-04-21 09:52:00,63.1,52.8,30.24,East,87,3.0,5.0,69,0.00,,---,0.00,622.00,VWS V14.01,2013-04-21 14:52:00,
2013-04-21 09:54:00,63.1,52.0,30.24,NE,53,1.0,5.0,67,0.00,,---,0.00,631.00,VWS V14.01,2013-04-21 14:54:00,
2013-04-21 09:55:00,63.4,53.1,30.24,ESE,104,2.0,5.0,69,0.00,,---,0.00,633.00,VWS V14.01,2013-04-21 14:55:00,
2013-04-21 09:56:00,63.5,53.2,30.24,East,100,1.0,5.0,69,0.00,,---,0.00,636.00,VWS V14.01,2013-04-21 14:56:00,
2013-04-21 09:57:00,63.8,53.0,30.24,East,99,1.0,5.0,68,0.00,,---,0.00,636.00,VWS V14.01,2013-04-21 14:57:00,
2013-04-21 09:58:00,64.0,53.2,30.24,East,100,0.0,5.0,68,0.00,,---,0.00,636.00,VWS V14.01,2013-04-21 14:58:00,
2013-04-21 10:00:00,64.3,53.1,30.24,East,100,0.0,1.0,67,0.00,,---,0.00,649.00,VWS V14.01,2013-04-21 15:00:00,
2013-04-21 10:03:00,64.6,52.2,30.24,NNW,348,0.0,3.0,64,0.00,,---,0.00,663.00,VWS V14.01,2013-04-21 15:03:00,
2013-04-21 10:04:00,65.1,54.3,30.24,NNW,348,0.0,3.0,68,0.00,,---,0.00,668.00,VWS V14.01,2013-04-21 15:04:00,
2013-04-21 10:05:00,65.3,54.1,30.24,NNW,348,2.0,3.0,67,0.00,,---,0.00,671.00,VWS V14.01,2013-04-21 15:05:00,
2013-04-21 10:07:00,65.7,54.0,30.24,NW,313,1.0,3.0,66,0.00,,---,0.00,679.00,VWS V14.01,2013-04-21 15:07:00,
2013-04-21 10:10:00,66.0,53.1,30.24,SSE,150,1.0,3.0,63,0.00,,---,0.00,691.00,VWS V14.01,2013-04-21 15:10:00,
2013-04-21 10:11:00,65.9,51.6,30.24,West,267,3.0,6.0,60,0.00,,---,0.00,693.00,VWS V14.01,2013-04-21 15:11:00,
2013-04-21 10:12:00,65.6,50.9,30.24,East,99,0.0,6.0,59,0.00,,---,0.00,698.00,VWS V14.01,2013-04-21 15:12:00,
2013-04-21 10:15:00,65.5,51.7,30.24,North,11,0.0,6.0,61,0.00,,---,0.00,705.00,VWS V14.01,2013-04-21 15:15:00,
2013-04-21 10:17:00,65.9,51.6,30.24,North,11,0.0,6.0,60,0.00,,---,0.00,708.00,VWS V14.01,2013-04-21 15:17:00,
2013-04-21 10:18:00,66.2,51.9,30.24,NNW,345,3.0,6.0,60,0.00,,---,0.00,712.00,VWS V14.01,2013-04-21 15:18:00,
2013-04-21 10:21:00,66.6,51.8,30.24,SSW,211,1.0,6.0,59,0.00,,---,0.00,719.00,VWS V14.01,2013-04-21 15:21:00,
2013-04-21 10:22:00,66.8,51.6,30.24,East,86,1.0,6.0,58,0.00,,---,0.00,722.00,VWS V14.01,2013-04-21 15:22:00,
2013-04-21 10:24:00,66.9,51.2,30.25,NW,305,3.0,6.0,57,0.00,,---,0.00,728.00,VWS V14.01,2013-04-21 15:24:00,
2013-04-21 10:25:00,67.0,52.2,30.24,NW,325,1.0,6.0,59,0.00,,---,0.00,731.00,VWS V14.01,2013-04-21 15:25:00,
2013-04-21 10:27:00,66.7,51.0,30.24,ENE,64,1.0,6.0,57,0.00,,---,0.00,738.00,VWS V14.01,2013-04-21 15:27:00,
2013-04-21 10:30:00,67.0,51.3,30.24,West,275,1.0,1.0,57,0.00,,---,0.00,744.00,VWS V14.01,2013-04-21 15:30:00,
2013-04-21 10:32:00,67.2,51.5,30.25,NW,315,3.0,3.0,57,0.00,,---,0.00,751.00,VWS V14.01,2013-04-21 15:32:00,
2013-04-21 10:33:00,67.1,50.4,30.24,SW,215,1.0,4.0,55,0.00,,---,0.00,754.00,VWS V14.01,2013-04-21 15:33:00,
2013-04-21 10:36:00,67.4,51.7,30.24,North,5,2.0,5.0,57,0.00,,---,0.00,759.00,VWS V14.01,2013-04-21 15:36:00,
2013-04-21 10:37:00,67.4,50.7,30.24,North,9,1.0,5.0,55,0.00,,---,0.00,763.00,VWS V14.01,2013-04-21 15:37:00,
2013-04-21 10:38:00,67.8,51.5,30.24,SE,142,2.0,5.0,56,0.00,,---,0.00,766.00,VWS V14.01,2013-04-21 15:38:00,
2013-04-21 10:39:00,67.8,50.6,30.24,NE,34,1.0,5.0,54,0.00,,---,0.00,770.00,VWS V14.01,2013-04-21 15:39:00,
2013-04-21 10:41:00,68.0,51.7,30.24,WSW,241,3.0,5.0,56,0.00,,---,0.00,773.00,VWS V14.01,2013-04-21 15:41:00,
2013-04-21 10:42:00,68.1,52.3,30.24,NW,325,1.0,5.0,57,0.00,,---,0.00,773.00,VWS V14.01,2013-04-21 15:42:00,
2013-04-21 10:44:00,68.5,52.7,30.24,ENE,69,0.0,5.0,57,0.00,,---,0.00,780.00,VWS V14.01,2013-04-21 15:44:00,
2013-04-21 10:45:00,68.5,51.2,30.24,NW,323,1.0,5.0,54,0.00,,---,0.00,784.00,VWS V14.01,2013-04-21 15:45:00,
2013-04-21 10:46:00,68.3,51.5,30.24,NW,323,0.0,5.0,55,0.00,,---,0.00,786.00,VWS V14.01,2013-04-21 15:46:00,
2013-04-21 10:48:00,68.5,52.7,30.24,ENE,60,1.0,5.0,57,0.00,,---,0.00,793.00,VWS V14.01,2013-04-21 15:48:00,
2013-04-21 10:49:00,68.7,50.9,30.24,South,180,1.0,5.0,53,0.00,,---,0.00,791.00,VWS V14.01,2013-04-21 15:49:00,
2013-04-21 10:50:00,68.4,51.6,30.24,ESE,109,1.0,7.0,55,0.00,,---,0.00,795.00,VWS V14.01,2013-04-21 15:50:00,
2013-04-21 10:51:00,68.4,52.1,30.24,ESE,109,0.0,7.0,56,0.00,,---,0.00,795.00,VWS V14.01,2013-04-21 15:51:00,
2013-04-21 10:52:00,68.8,53.0,30.24,East,99,2.0,7.0,57,0.00,,---,0.00,802.00,VWS V14.01,2013-04-21 15:52:00,
2013-04-21 10:53:00,69.2,52.8,30.24,SE,140,1.0,7.0,56,0.00,,---,0.00,805.00,VWS V14.01,2013-04-21 15:53:00,
2013-04-21 10:55:00,69.0,51.2,30.24,SSE,162,1.0,7.0,53,0.00,,---,0.00,807.00,VWS V14.01,2013-04-21 15:55:00,
2013-04-21 10:56:00,68.4,51.6,30.24,SSE,162,0.0,7.0,55,0.00,,---,0.00,810.00,VWS V14.01,2013-04-21 15:56:00,
2013-04-21 10:58:00,68.2,51.4,30.24,South,172,1.0,7.0,55,0.00,,---,0.00,814.00,VWS V14.01,2013-04-21 15:58:00,
2013-04-21 10:59:00,68.4,51.6,30.24,ENE,63,3.0,7.0,55,0.00,,---,0.00,816.00,VWS V14.01,2013-04-21 15:59:00,
2013-04-21 11:00:00,69.2,52.8,30.24,South,174,6.0,6.0,56,0.00,,---,0.00,821.00,VWS V14.01,2013-04-21 16:00:00,
2013-04-21 11:01:00,69.3,52.5,30.24,South,173,3.0,6.0,55,0.00,,---,0.00,821.00,VWS V14.01,2013-04-21 16:01:00,
2013-04-21 11:03:00,68.9,51.1,30.24,SSE,168,3.0,6.0,53,0.00,,---,0.00,824.00,VWS V14.01,2013-04-21 16:03:00,
2013-04-21 11:05:00,68.3,50.5,30.24,South,187,2.0,7.0,53,0.00,,---,0.00,830.00,VWS V14.01,2013-04-21 16:05:00,
2013-04-21 11:06:00,67.7,50.0,30.24,SE,136,0.0,7.0,53,0.00,,---,0.00,831.00,VWS V14.01,2013-04-21 16:06:00,
2013-04-21 11:08:00,67.9,52.1,30.24,SSE,165,3.0,7.0,57,0.00,,---,0.00,835.00,VWS V14.01,2013-04-21 16:08:00,
2013-04-21 11:10:00,68.5,52.7,30.24,SE,146,0.0,7.0,57,0.00,,---,0.00,840.00,VWS V14.01,2013-04-21 16:10:00,
2013-04-21 11:11:00,69.2,53.3,30.24,ESE,110,3.0,7.0,57,0.00,,---,0.00,837.00,VWS V14.01,2013-04-21 16:11:00,
2013-04-21 11:13:00,69.8,52.4,30.24,North,360,2.0,7.0,54,0.00,,---,0.00,840.00,VWS V14.01,2013-04-21 16:13:00,
2013-04-21 11:15:00,70.3,53.9,30.24,NNE,24,2.0,7.0,56,0.00,,---,0.00,853.00,VWS V14.01,2013-04-21 16:15:00,
2013-04-21 11:16:00,71.0,53.5,30.24,NNW,347,2.0,7.0,54,0.00,,---,0.00,856.00,VWS V14.01,2013-04-21 16:16:00,
2013-04-21 11:17:00,71.1,53.6,30.24,NNW,347,0.0,7.0,54,0.00,,---,0.00,858.00,VWS V14.01,2013-04-21 16:17:00,
2013-04-21 11:18:00,71.1,53.1,30.24,South,184,0.0,7.0,53,0.00,,---,0.00,858.00,VWS V14.01,2013-04-21 16:18:00,
2013-04-21 11:20:00,70.6,51.1,30.24,NW,304,3.0,7.0,50,0.00,,---,0.00,865.00,VWS V14.01,2013-04-21 16:20:00,
2013-04-21 11:21:00,70.1,50.1,30.24,NW,306,1.0,7.0,49,0.00,,---,0.00,867.00,VWS V14.01,2013-04-21 16:21:00,
2013-04-21 11:23:00,69.7,50.8,30.24,NW,307,0.0,7.0,51,0.00,,---,0.00,870.00,VWS V14.01,2013-04-21 16:23:00,
2013-04-21 11:26:00,70.0,51.1,30.23,ENE,69,2.0,7.0,51,0.00,,---,0.00,877.00,VWS V14.01,2013-04-21 16:26:00,
2013-04-21 11:27:00,70.1,51.2,30.23,South,184,2.0,7.0,51,0.00,,---,0.00,879.00,VWS V14.01,2013-04-21 16:27:00,
2013-04-21 11:28:00,70.2,52.3,30.23,NNE,28,2.0,7.0,53,0.00,,---,0.00,884.00,VWS V14.01,2013-04-21 16:28:00,
2013-04-21 11:29:00,70.4,52.5,30.23,NNE,28,0.0,7.0,53,0.00,,---,0.00,884.00,VWS V14.01,2013-04-21 16:29:00,
2013-04-21 11:32:00,71.0,52.0,30.23,North,355,0.0,4.0,51,0.00,,---,0.00,886.00,VWS V14.01,2013-04-21 16:32:00,
2013-04-21 11:33:00,70.7,51.7,30.23,WSW,256,2.0,4.0,51,0.00,,---,0.00,881.00,VWS V14.01,2013-04-21 16:33:00,
2013-04-21 11:35:00,70.5,52.6,30.23,ENE,75,0.0,7.0,53,0.00,,---,0.00,891.00,VWS V14.01,2013-04-21 16:35:00,
2013-04-21 11:37:00,71.0,53.0,30.23,SSW,209,0.0,7.0,53,0.00,,---,0.00,898.00,VWS V14.01,2013-04-21 16:37:00,
2013-04-21 11:38:00,71.5,54.0,30.23,SSE,163,4.0,7.0,54,0.00,,---,0.00,900.00,VWS V14.01,2013-04-21 16:38:00,
2013-04-21 11:39:00,71.6,54.1,30.23,SSE,147,1.0,7.0,54,0.00,,---,0.00,909.00,VWS V14.01,2013-04-21 16:39:00,
2013-04-21 11:40:00,71.3,51.7,30.23,South,173,3.0,7.0,50,0.00,,---,0.00,918.00,VWS V14.01,2013-04-21 16:40:00,
2013-04-21 11:42:00,70.2,51.8,30.23,SW,215,2.0,7.0,52,0.00,,---,0.00,914.00,VWS V14.01,2013-04-21 16:42:00,
2013-04-21 11:44:00,69.6,52.2,30.23,SSE,157,1.0,7.0,54,0.00,,---,0.00,909.00,VWS V14.01,2013-04-21 16:44:00,
2013-04-21 11:45:00,69.5,51.6,30.23,SSE,157,0.0,7.0,53,0.00,,---,0.00,912.00,VWS V14.01,2013-04-21 16:45:00,
2013-04-21 11:47:00,69.9,52.5,30.23,SSE,153,0.0,7.0,54,0.00,,---,0.00,925.00,VWS V14.01,2013-04-21 16:47:00,
2013-04-21 11:48:00,70.2,53.3,30.23,SSE,165,0.0,7.0,55,0.00,,---,0.00,923.00,VWS V14.01,2013-04-21 16:48:00,
2013-04-21 11:50:00,70.4,52.0,30.23,SSW,204,3.0,7.0,52,0.00,,---,0.00,928.00,VWS V14.01,2013-04-21 16:50:00,
2013-04-21 11:51:00,70.3,51.3,30.23,SSE,147,3.0,7.0,51,0.00,,---,0.00,932.00,VWS V14.01,2013-04-21 16:51:00,
2013-04-21 11:53:00,70.4,53.0,30.23,West,281,0.0,7.0,54,0.00,,---,0.00,935.00,VWS V14.01,2013-04-21 16:53:00,
2013-04-21 11:56:00,70.2,50.2,30.23,SE,145,0.0,7.0,49,0.00,,---,0.00,939.00,VWS V14.01,2013-04-21 16:56:00,
2013-04-21 11:57:00,70.1,52.7,30.23,SW,226,1.0,7.0,54,0.00,,---,0.00,940.00,VWS V14.01,2013-04-21 16:57:00,
2013-04-21 11:59:00,70.4,51.4,30.23,NW,325,5.0,7.0,51,0.00,,---,0.00,949.00,VWS V14.01,2013-04-21 16:59:00,
2013-04-21 12:02:00,70.8,49.6,30.23,NW,325,0.0,4.0,47,0.00,,---,0.00,976.00,VWS V14.01,2013-04-21 17:02:00,
2013-04-21 12:03:00,70.7,50.6,30.23,NW,325,1.0,4.0,49,0.00,,---,0.00,981.00,VWS V14.01,2013-04-21 17:03:00,
2013-04-21 12:04:00,70.7,50.6,30.23,NE,54,0.0,4.0,49,0.00,,---,0.00,981.00,VWS V14.01,2013-04-21 17:04:00,
2013-04-21 12:05:00,70.6,51.1,30.23,SSE,161,1.0,4.0,50,0.00,,---,0.00,981.00,VWS V14.01,2013-04-21 17:05:00,
2013-04-21 12:07:00,71.0,50.3,30.23,North,11,1.0,8.0,48,0.00,,---,0.00,981.00,VWS V14.01,2013-04-21 17:07:00,
2013-04-21 12:09:00,71.7,53.2,30.23,NNE,15,1.0,8.0,52,0.00,,---,0.00,969.00,VWS V14.01,2013-04-21 17:09:00,
2013-04-21 12:10:00,72.2,53.1,30.23,ENE,67,0.0,8.0,51,0.00,,---,0.00,969.00,VWS V14.01,2013-04-21 17:10:00,
2013-04-21 12:13:00,72.8,52.0,30.23,South,186,3.0,8.0,48,0.00,,---,0.00,960.00,VWS V14.01,2013-04-21 17:13:00,
2013-04-21 12:14:00,72.5,51.7,30.23,SSE,156,5.0,8.0,48,0.00,,---,0.00,956.00,VWS V14.01,2013-04-21 17:14:00,
2013-04-21 12:15:00,71.6,50.9,30.23,ESE,114,2.0,8.0,48,0.00,,---,0.00,962.00,VWS V14.01,2013-04-21 17:15:00,
2013-04-21 12:16:00,71.2,50.5,30.23,SSW,204,3.0,8.0,48,0.00,,---,0.00,962.00,VWS V14.01,2013-04-21 17:16:00,
2013-04-21 12:19:00,69.7,51.8,30.23,SSW,194,4.0,8.0,53,0.00,,---,0.00,972.00,VWS V14.01,2013-04-21 17:19:00,
2013-04-21 12:21:00,69.4,50.5,30.23,SSE,158,3.0,8.0,51,0.00,,---,0.00,962.00,VWS V14.01,2013-04-21 17:21:00,
2013-04-21 12:22:00,69.1,50.8,30.23,South,169,3.0,8.0,52,0.00,,---,0.00,963.00,VWS V14.01,2013-04-21 17:22:00,
2013-04-21 12:24:00,69.9,52.5,30.22,East,81,0.0,8.0,54,0.00,,---,0.00,977.00,VWS V14.01,2013-04-21 17:24:00,
2013-04-21 12:27:00,70.1,50.6,30.22,SW,223,0.0,8.0,50,0.00,,---,0.00,983.00,VWS V14.01,2013-04-21 17:27:00,
2013-04-21 12:28:00,70.5,52.6,30.22,South,176,2.0,8.0,53,0.00,,---,0.00,984.00,VWS V14.01,2013-04-21 17:28:00,
2013-04-21 12:29:00,71.4,52.9,30.22,ESE,117,0.0,8.0,52,0.00,,---,0.00,991.00,VWS V14.01,2013-04-21 17:29:00,
2013-04-21 12:31:00,72.1,53.0,30.22,SSW,205,3.0,4.0,51,0.00,,---,0.00,990.00,VWS V14.01,2013-04-21 17:31:00,
2013-04-21 12:32:00,71.7,50.4,30.22,South,176,3.0,5.0,47,0.00,,---,0.00,1000.00,VWS V14.01,2013-04-21 17:32:00,
2013-04-21 12:33:00,71.6,52.5,30.22,South,174,1.0,5.0,51,0.00,,---,0.00,1004.00,VWS V14.01,2013-04-21 17:33:00,
2013-04-21 12:34:00,71.7,51.5,30.22,South,174,0.0,5.0,49,0.00,,---,0.00,1009.00,VWS V14.01,2013-04-21 17:34:00,
2013-04-21 12:36:00,72.2,52.0,30.22,SE,140,0.0,5.0,49,0.00,,---,0.00,1014.00,VWS V14.01,2013-04-21 17:36:00,
2013-04-21 12:37:00,73.5,54.8,30.22,ESE,113,1.0,5.0,52,0.00,,---,0.00,1005.00,VWS V14.01,2013-04-21 17:37:00,
2013-04-21 12:38:00,73.3,51.9,30.22,SW,225,1.0,5.0,47,0.00,,---,0.00,995.00,VWS V14.01,2013-04-21 17:38:00,
2013-04-21 12:40:00,73.1,53.4,30.21,SSW,212,0.0,5.0,50,0.00,,---,0.00,1018.00,VWS V14.01,2013-04-21 17:40:00,
2013-04-21 12:41:00,73.3,53.0,30.22,SSW,212,1.0,5.0,49,0.00,,---,0.00,1020.00,VWS V14.01,2013-04-21 17:41:00,
2013-04-21 12:44:00,74.0,53.7,30.21,SW,221,3.0,5.0,49,0.00,,---,0.00,998.00,VWS V14.01,2013-04-21 17:44:00,
2013-04-21 12:45:00,73.9,53.0,30.21,South,178,2.0,5.0,48,0.00,,---,0.00,1000.00,VWS V14.01,2013-04-21 17:45:00,
2013-04-21 12:46:00,73.5,52.1,30.21,North,9,7.0,8.0,47,0.00,,---,0.00,995.00,VWS V14.01,2013-04-21 17:46:00,
2013-04-21 12:50:00,73.8,53.5,30.21,SSW,197,3.0,8.0,49,0.00,,---,0.00,986.00,VWS V14.01,2013-04-21 17:50:00,
2013-04-21 12:51:00,73.3,53.0,30.21,SSW,197,0.0,8.0,49,0.00,,---,0.00,990.00,VWS V14.01,2013-04-21 17:51:00,
2013-04-21 12:52:00,73.2,52.9,30.21,SSW,197,1.0,8.0,49,0.00,,---,0.00,990.00,VWS V14.01,2013-04-21 17:52:00,
2013-04-21 12:54:00,73.2,51.2,30.21,North,355,2.0,8.0,46,0.00,,---,0.00,998.00,VWS V14.01,2013-04-21 17:54:00,
2013-04-21 12:55:00,72.9,50.9,30.21,NNW,331,1.0,8.0,46,0.00,,---,0.00,1000.00,VWS V14.01,2013-04-21 17:55:00,
2013-04-21 12:56:00,72.9,50.9,30.21,NNW,332,1.0,8.0,46,0.00,,---,0.00,1002.00,VWS V14.01,2013-04-21 17:56:00,
2013-04-21 12:58:00,73.8,53.5,30.21,South,180,1.0,8.0,49,0.00,,---,0.00,995.00,VWS V14.01,2013-04-21 17:58:00,
2013-04-21 13:00:00,74.1,52.6,30.21,SSE,167,2.0,2.0,47,0.00,,---,0.00,998.00,VWS V14.01,2013-04-21 18:00:00,
2013-04-21 13:02:00,73.8,51.8,30.20,ENE,76,3.0,3.0,46,0.00,,---,0.00,1000.00,VWS V14.01,2013-04-21 18:02:00,
2013-04-21 13:03:00,74.4,53.5,30.20,NW,319,3.0,3.0,48,0.00,,---,0.00,1004.00,VWS V14.01,2013-04-21 18:03:00,
2013-04-21 13:04:00,74.7,52.0,30.20,North,355,3.0,3.0,45,0.00,,---,0.00,1004.00,VWS V14.01,2013-04-21 18:04:00,
2013-04-21 13:05:00,74.7,51.4,30.20,NW,306,2.0,5.0,44,0.00,,---,0.00,1005.00,VWS V14.01,2013-04-21 18:05:00,
2013-04-21 13:07:00,74.6,51.3,30.20,North,360,2.0,5.0,44,0.00,,---,0.00,1009.00,VWS V14.01,2013-04-21 18:07:00,
2013-04-21 13:08:00,74.9,50.9,30.20,North,5,1.0,5.0,43,0.00,,---,0.00,1009.00,VWS V14.01,2013-04-21 18:08:00,
2013-04-21 13:10:00,74.9,50.9,30.20,North,5,1.0,5.0,43,0.00,,---,0.00,1002.00,VWS V14.01,2013-04-21 18:10:00,
2013-04-21 13:11:00,75.3,52.5,30.20,NNE,25,0.0,5.0,45,0.00,,---,0.00,1004.00,VWS V14.01,2013-04-21 18:11:00,
2013-04-21 13:12:00,75.1,51.7,30.20,West,276,2.0,5.0,44,0.00,,---,0.00,1000.00,VWS V14.01,2013-04-21 18:12:00,
2013-04-21 13:14:00,73.2,51.2,30.20,NNE,21,3.0,5.0,46,0.00,,---,0.00,1005.00,VWS V14.01,2013-04-21 18:14:00,
2013-04-21 13:15:00,73.9,51.8,30.19,NNE,21,0.0,5.0,46,0.00,,---,0.00,1009.00,VWS V14.01,2013-04-21 18:15:00,
2013-04-21 13:16:00,73.7,50.5,30.19,NNE,21,0.0,5.0,44,0.00,,---,0.00,1004.00,VWS V14.01,2013-04-21 18:16:00,
2013-04-21 13:18:00,72.9,50.9,30.19,SSE,162,4.0,5.0,46,0.00,,---,0.00,993.00,VWS V14.01,2013-04-21 18:18:00,
2013-04-21 13:19:00,72.2,50.9,30.19,South,184,2.0,5.0,47,0.00,,---,0.00,993.00,VWS V14.01,2013-04-21 18:19:00,
2013-04-21 13:20:00,71.6,50.9,30.19,South,182,1.0,5.0,48,0.00,,---,0.00,995.00,VWS V14.01,2013-04-21 18:20:00,
2013-04-21 13:21:00,71.7,51.5,30.19,ESE,120,3.0,6.0,49,0.00,,---,0.00,1011.00,VWS V14.01,2013-04-21 18:21:00,
2013-04-21 13:22:00,72.1,53.0,30.19,SSE,153,2.0,6.0,51,0.00,,---,0.00,1014.00,VWS V14.01,2013-04-21 18:22:00,
2013-04-21 13:25:00,74.0,53.7,30.19,SSW,213,2.0,6.0,49,0.00,,---,0.00,1005.00,VWS V14.01,2013-04-21 18:25:00,
2013-04-21 13:26:00,74.6,53.1,30.19,SW,215,0.0,6.0,47,0.00,,---,0.00,1007.00,VWS V14.01,2013-04-21 18:26:00,
2013-04-21 13:27:00,74.7,53.2,30.19,North,360,4.0,6.0,47,0.00,,---,0.00,1007.00,VWS V14.01,2013-04-21 18:27:00,
2013-04-21 13:28:00,74.8,52.7,30.19,North,355,0.0,6.0,46,0.00,,---,0.00,972.00,VWS V14.01,2013-04-21 18:28:00,
2013-04-21 13:30:00,74.8,52.1,30.19,North,360,4.0,5.0,45,0.00,,---,0.00,1021.00,VWS V14.01,2013-04-21 18:30:00,
2013-04-21 13:31:00,75.0,52.2,30.19,North,5,2.0,5.0,45,0.00,,---,0.00,1016.00,VWS V14.01,2013-04-21 18:31:00,
2013-04-21 13:32:00,76.0,53.2,30.20,NE,42,0.0,5.0,45,0.00,,---,0.00,1007.00,VWS V14.01,2013-04-21 18:32:00,
2013-04-21 13:36:00,75.7,52.3,30.19,NNE,13,0.0,5.0,44,0.00,,---,0.00,998.00,VWS V14.01,2013-04-21 18:36:00,
2013-04-21 13:37:00,75.3,50.7,30.19,North,360,1.0,5.0,42,0.00,,---,0.00,998.00,VWS V14.01,2013-04-21 18:37:00,
2013-04-21 13:38:00,74.6,50.7,30.19,North,360,2.0,5.0,43,0.00,,---,0.00,998.00,VWS V14.01,2013-04-21 18:38:00,
2013-04-21 13:41:00,72.3,49.8,30.19,WNW,293,1.0,5.0,45,0.00,,---,0.00,921.00,VWS V14.01,2013-04-21 18:41:00,
2013-04-21 13:42:00,73.2,51.8,30.19,WSW,238,2.0,5.0,47,0.00,,---,0.00,921.00,VWS V14.01,2013-04-21 18:42:00,
2013-04-21 13:44:00,74.0,51.9,30.19,East,98,0.0,5.0,46,0.00,,---,0.00,921.00,VWS V14.01,2013-04-21 18:44:00,
2013-04-21 13:45:00,74.8,53.2,30.19,East,98,0.0,5.0,47,0.00,,---,0.00,113.00,VWS V14.01,2013-04-21 18:45:00,
2013-04-21 13:47:00,74.9,51.5,30.19,East,92,1.0,5.0,44,0.00,,---,0.00,114.00,VWS V14.01,2013-04-21 18:47:00,
2013-04-21 13:48:00,75.7,52.3,30.19,North,355,2.0,5.0,44,0.00,,---,0.00,114.00,VWS V14.01,2013-04-21 18:48:00,
2013-04-21 13:49:00,76.3,53.4,30.19,NNE,20,2.0,5.0,45,0.00,,---,0.00,113.00,VWS V14.01,2013-04-21 18:49:00,
2013-04-21 13:50:00,76.7,51.9,30.19,NE,48,1.0,5.0,42,0.00,,---,0.00,111.00,VWS V14.01,2013-04-21 18:50:00,
2013-04-21 13:52:00,76.4,52.3,30.19,NNE,27,0.0,5.0,43,0.00,,---,0.00,111.00,VWS V14.01,2013-04-21 18:52:00,
2013-04-21 13:53:00,76.6,53.7,30.18,ENE,76,0.0,5.0,45,0.00,,---,0.00,111.00,VWS V14.01,2013-04-21 18:53:00,
2013-04-21 13:55:00,76.9,54.6,30.18,SSE,147,5.0,5.0,46,0.00,,---,0.00,114.00,VWS V14.01,2013-04-21 18:55:00,
2013-04-21 13:57:00,74.6,49.4,30.18,SSE,157,3.0,5.0,41,0.00,,---,0.00,113.00,VWS V14.01,2013-04-21 18:57:00,
2013-04-21 13:58:00,73.9,50.0,30.18,SSE,157,2.0,5.0,43,0.00,,---,0.00,113.00,VWS V14.01,2013-04-21 18:58:00,
2013-04-21 13:59:00,73.1,49.9,30.18,SSE,157,0.0,5.0,44,0.00,,---,0.00,121.00,VWS V14.01,2013-04-21 18:59:00,
2013-04-21 14:00:00,72.6,51.8,30.18,SSE,157,1.0,1.0,48,0.00,,---,0.00,123.00,VWS V14.01,2013-04-21 19:00:00,
2013-04-21 14:02:00,74.6,53.1,30.18,SE,144,1.0,1.0,47,0.00,,---,0.00,155.00,VWS V14.01,2013-04-21 19:02:00,
2013-04-21 14:03:00,75.4,54.4,30.18,SE,144,1.0,2.0,48,0.00,,---,0.00,172.00,VWS V14.01,2013-04-21 19:03:00,
2013-04-21 14:04:00,75.4,52.0,30.18,SE,144,1.0,2.0,44,0.00,,---,0.00,172.00,VWS V14.01,2013-04-21 19:04:00,
2013-04-21 14:06:00,76.1,55.0,30.18,NW,304,1.0,5.0,48,0.00,,---,0.00,248.00,VWS V14.01,2013-04-21 19:06:00,
2013-04-21 14:08:00,77.8,54.8,30.18,North,349,3.0,5.0,45,0.00,,---,0.00,434.00,VWS V14.01,2013-04-21 19:08:00,
2013-04-21 14:09:00,77.5,52.0,30.18,NNW,333,3.0,5.0,41,0.00,,---,0.00,434.00,VWS V14.01,2013-04-21 19:09:00,
2013-04-21 14:10:00,76.7,50.6,30.17,NNW,332,0.0,5.0,40,0.00,,---,0.00,434.00,VWS V14.01,2013-04-21 19:10:00,
2013-04-21 14:11:00,76.5,53.6,30.17,South,178,3.0,5.0,45,0.00,,---,0.00,434.00,VWS V14.01,2013-04-21 19:11:00,
2013-04-21 14:12:00,76.6,53.7,30.17,South,172,0.0,5.0,45,0.00,,---,0.00,849.00,VWS V14.01,2013-04-21 19:12:00,
2013-04-21 14:14:00,77.3,51.1,30.17,NE,45,0.0,5.0,40,0.00,,---,0.00,1002.00,VWS V14.01,2013-04-21 19:14:00,
2013-04-21 14:15:00,77.3,52.5,30.17,NE,45,0.0,5.0,42,0.00,,---,0.00,1002.00,VWS V14.01,2013-04-21 19:15:00,
2013-04-21 14:18:00,76.3,50.9,30.17,SSE,155,0.0,5.0,41,0.00,,---,0.00,1035.00,VWS V14.01,2013-04-21 19:18:00,
2013-04-21 14:19:00,75.6,52.8,30.17,SSE,155,0.0,5.0,45,0.00,,---,0.00,997.00,VWS V14.01,2013-04-21 19:19:00,
2013-04-21 14:20:00,75.9,52.5,30.17,NW,319,0.0,5.0,44,0.00,,---,0.00,1035.00,VWS V14.01,2013-04-21 19:20:00,
2013-04-21 14:23:00,77.8,53.5,30.17,NNE,28,0.0,5.0,43,0.00,,---,0.00,1004.00,VWS V14.01,2013-04-21 19:23:00,
2013-04-21 14:24:00,78.4,54.7,30.17,NNE,28,1.0,5.0,44,0.00,,---,0.00,1004.00,VWS V14.01,2013-04-21 19:24:00,
2013-04-21 14:25:00,78.1,52.5,30.17,NE,36,1.0,5.0,41,0.00,,---,0.00,1004.00,VWS V14.01,2013-04-21 19:25:00,
2013-04-21 14:28:00,77.1,52.3,30.17,NE,51,0.0,5.0,42,0.00,,---,0.00,991.00,VWS V14.01,2013-04-21 19:28:00,
2013-04-21 14:29:00,77.2,51.7,30.17,ESE,113,0.0,5.0,41,0.00,,---,0.00,988.00,VWS V14.01,2013-04-21 19:29:00,
2013-04-21 14:31:00,77.9,51.0,30.16,NNW,342,3.0,3.0,39,0.00,,---,0.00,856.00,VWS V14.01,2013-04-21 19:31:00,
2013-04-21 14:32:00,77.9,52.3,30.16,NNE,20,1.0,4.0,41,0.00,,---,0.00,856.00,VWS V14.01,2013-04-21 19:32:00,
2013-04-21 14:34:00,77.1,50.9,30.16,NNE,31,0.0,4.0,40,0.00,,---,0.00,197.00,VWS V14.01,2013-04-21 19:34:00,
2013-04-21 14:35:00,76.9,50.8,30.16,NNE,31,1.0,4.0,40,0.00,,---,0.00,216.00,VWS V14.01,2013-04-21 19:35:00,
2013-04-21 14:36:00,75.6,51.5,30.16,NNE,31,0.0,4.0,43,0.00,,---,0.00,214.00,VWS V14.01,2013-04-21 19:36:00,
2013-04-21 14:40:00,74.4,53.5,30.16,NNE,31,0.0,4.0,48,0.00,,---,0.00,974.00,VWS V14.01,2013-04-21 19:40:00,
2013-04-21 14:41:00,74.8,53.8,30.16,East,88,1.0,4.0,48,0.00,,---,0.00,965.00,VWS V14.01,2013-04-21 19:41:00,
2013-04-21 14:42:00,75.6,54.0,30.16,ENE,71,0.0,4.0,47,0.00,,---,0.00,970.00,VWS V14.01,2013-04-21 19:42:00,
2013-04-21 14:46:00,76.9,53.3,30.16,NNE,32,0.0,4.0,44,0.00,,---,0.00,970.00,VWS V14.01,2013-04-21 19:46:00,
2013-04-21 14:47:00,76.9,52.7,30.16,West,268,1.0,4.0,43,0.00,,---,0.00,967.00,VWS V14.01,2013-04-21 19:47:00,
2013-04-21 14:48:00,76.9,52.7,30.16,WSW,258,3.0,4.0,43,0.00,,---,0.00,962.00,VWS V14.01,2013-04-21 19:48:00,
2013-04-21 14:53:00,77.1,54.2,30.16,NNE,23,1.0,7.0,45,0.00,,---,0.00,882.00,VWS V14.01,2013-04-21 19:53:00,
2013-04-21 14:54:00,77.8,53.5,30.16,North,355,3.0,7.0,43,0.00,,---,0.00,882.00,VWS V14.01,2013-04-21 19:54:00,
2013-04-21 14:59:00,76.6,54.3,30.16,North,355,0.0,7.0,46,0.00,,---,0.00,274.00,VWS V14.01,2013-04-21 19:59:00,
2013-04-21 15:00:00,76.7,54.4,30.16,East,101,3.0,3.0,46,0.00,,---,0.00,232.00,VWS V14.01,2013-04-21 20:00:00,
2013-04-21 15:02:00,76.1,53.2,30.16,East,101,1.0,3.0,45,0.00,,---,0.00,206.00,VWS V14.01,2013-04-21 20:02:00,
2013-04-21 15:05:00,74.4,53.5,30.15,ESE,123,1.0,3.0,48,0.00,,---,0.00,172.00,VWS V14.01,2013-04-21 20:05:00,
2013-04-21 15:07:00,74.0,51.9,30.15,ESE,123,0.0,3.0,46,0.00,,---,0.00,174.00,VWS V14.01,2013-04-21 20:07:00,
2013-04-21 15:08:00,74.1,51.4,30.15,SE,127,2.0,3.0,45,0.00,,---,0.00,174.00,VWS V14.01,2013-04-21 20:08:00,
2013-04-21 15:10:00,73.4,52.0,30.15,South,184,4.0,5.0,47,0.00,,---,0.00,898.00,VWS V14.01,2013-04-21 20:10:00,
2013-04-21 15:11:00,73.5,53.7,30.15,SSE,158,5.0,5.0,50,0.00,,---,0.00,886.00,VWS V14.01,2013-04-21 20:11:00,
2013-04-21 15:12:00,73.8,52.9,30.15,South,178,3.0,6.0,48,0.00,,---,0.00,877.00,VWS V14.01,2013-04-21 20:12:00,
2013-04-21 15:14:00,73.5,52.6,30.15,SSE,148,2.0,6.0,48,0.00,,---,0.00,874.00,VWS V14.01,2013-04-21 20:14:00,
2013-04-21 15:15:00,73.5,52.6,30.15,SSE,148,2.0,6.0,48,0.00,,---,0.00,870.00,VWS V14.01,2013-04-21 20:15:00,
2013-04-21 15:16:00,73.6,52.7,30.15,SSE,166,3.0,6.0,48,0.00,,---,0.00,865.00,VWS V14.01,2013-04-21 20:16:00,
2013-04-21 15:18:00,74.1,53.2,30.14,South,175,5.0,6.0,48,0.00,,---,0.00,856.00,VWS V14.01,2013-04-21 20:18:00,
2013-04-21 15:20:00,74.2,51.5,30.14,SE,143,2.0,6.0,45,0.00,,---,0.00,851.00,VWS V14.01,2013-04-21 20:20:00,
2013-04-21 15:21:00,73.9,51.2,30.14,South,191,2.0,6.0,45,0.00,,---,0.00,853.00,VWS V14.01,2013-04-21 20:21:00,
2013-04-21 15:22:00,73.8,51.2,30.14,South,191,2.0,6.0,45,0.00,,---,0.00,849.00,VWS V14.01,2013-04-21 20:22:00,
2013-04-21 15:23:00,73.6,51.6,30.14,South,169,2.0,6.0,46,0.00,,---,0.00,856.00,VWS V14.01,2013-04-21 20:23:00,
2013-04-21 15:25:00,73.7,50.5,30.14,SSE,161,2.0,6.0,44,0.00,,---,0.00,863.00,VWS V14.01,2013-04-21 20:25:00,
2013-04-21 15:27:00,73.5,52.6,30.14,SSW,203,4.0,9.0,48,0.00,,---,0.00,867.00,VWS V14.01,2013-04-21 20:27:00,
2013-04-21 15:28:00,73.4,52.0,30.14,South,175,3.0,9.0,47,0.00,,---,0.00,870.00,VWS V14.01,2013-04-21 20:28:00,
2013-04-21 15:29:00,73.2,51.8,30.14,SSE,165,3.0,9.0,47,0.00,,---,0.00,872.00,VWS V14.01,2013-04-21 20:29:00,
2013-04-21 15:32:00,73.8,51.8,30.14,SSE,165,1.0,3.0,46,0.00,,---,0.00,861.00,VWS V14.01,2013-04-21 20:32:00,
2013-04-21 15:33:00,75.1,52.9,30.14,SSE,164,1.0,3.0,46,0.00,,---,0.00,807.00,VWS V14.01,2013-04-21 20:33:00,
2013-04-21 15:34:00,75.3,53.1,30.14,SSE,165,0.0,3.0,46,0.00,,---,0.00,807.00,VWS V14.01,2013-04-21 20:34:00,
2013-04-21 15:36:00,76.3,54.0,30.14,SSE,164,0.0,3.0,46,0.00,,---,0.00,807.00,VWS V14.01,2013-04-21 20:36:00,
2013-04-21 15:37:00,76.5,53.6,30.14,SSE,165,0.0,3.0,45,0.00,,---,0.00,717.00,VWS V14.01,2013-04-21 20:37:00,
2013-04-21 15:40:00,76.1,54.4,30.14,SSE,155,3.0,4.0,47,0.00,,---,0.00,826.00,VWS V14.01,2013-04-21 20:40:00,
2013-04-21 15:41:00,75.8,52.4,30.14,SSE,151,5.0,6.0,44,0.00,,---,0.00,828.00,VWS V14.01,2013-04-21 20:41:00,
2013-04-21 15:42:00,75.0,51.6,30.14,South,177,3.0,7.0,44,0.00,,---,0.00,830.00,VWS V14.01,2013-04-21 20:42:00,
2013-04-21 15:45:00,75.5,52.7,30.13,ESE,111,0.0,7.0,45,0.00,,---,0.00,814.00,VWS V14.01,2013-04-21 20:45:00,
2013-04-21 15:46:00,75.6,52.2,30.13,North,360,2.0,7.0,44,0.00,,---,0.00,810.00,VWS V14.01,2013-04-21 20:46:00,
2013-04-21 15:47:00,76.2,53.3,30.13,NE,34,1.0,7.0,45,0.00,,---,0.00,809.00,VWS V14.01,2013-04-21 20:47:00,
2013-04-21 15:49:00,76.7,53.8,30.13,SE,124,0.0,7.0,45,0.00,,---,0.00,807.00,VWS V14.01,2013-04-21 20:49:00,
2013-04-21 15:50:00,76.5,51.7,30.13,WSW,252,1.0,7.0,42,0.00,,---,0.00,802.00,VWS V14.01,2013-04-21 20:50:00,
2013-04-21 15:51:00,76.2,50.8,30.13,SW,215,3.0,7.0,41,0.00,,---,0.00,798.00,VWS V14.01,2013-04-21 20:51:00,
2013-04-21 15:52:00,75.5,52.1,30.13,SW,215,1.0,7.0,44,0.00,,---,0.00,798.00,VWS V14.01,2013-04-21 20:52:00,
2013-04-21 15:53:00,74.9,50.9,30.13,SW,215,0.0,7.0,43,0.00,,---,0.00,784.00,VWS V14.01,2013-04-21 20:53:00,
2013-04-21 15:54:00,75.0,52.2,30.13,SW,215,0.0,7.0,45,0.00,,---,0.00,784.00,VWS V14.01,2013-04-21 20:54:00,
2013-04-21 15:55:00,75.1,51.1,30.13,SW,219,0.0,7.0,43,0.00,,---,0.00,784.00,VWS V14.01,2013-04-21 20:55:00,
2013-04-21 15:59:00,76.0,51.9,30.13,North,9,0.0,7.0,43,0.00,,---,0.00,262.00,VWS V14.01,2013-04-21 20:59:00,
2013-04-21 16:00:00,76.0,51.9,30.13,North,9,2.0,2.0,43,0.00,,---,0.00,262.00,VWS V14.01,2013-04-21 21:00:00,
2013-04-21 16:01:00,75.7,51.6,30.12,South,180,3.0,4.0,43,0.00,,---,0.00,262.00,VWS V14.01,2013-04-21 21:01:00,
2013-04-21 16:03:00,75.2,51.2,30.12,SW,214,1.0,4.0,43,0.00,,---,0.00,476.00,VWS V14.01,2013-04-21 21:03:00,
2013-04-21 16:05:00,74.9,50.9,30.12,West,269,1.0,4.0,43,0.00,,---,0.00,577.00,VWS V14.01,2013-04-21 21:05:00,
2013-04-21 16:06:00,74.9,50.3,30.12,West,269,0.0,4.0,42,0.00,,---,0.00,577.00,VWS V14.01,2013-04-21 21:06:00,
2013-04-21 16:07:00,74.9,50.9,30.12,NW,314,1.0,4.0,43,0.00,,---,0.00,577.00,VWS V14.01,2013-04-21 21:07:00,
2013-04-21 16:09:00,75.0,51.6,30.12,NNW,338,0.0,4.0,44,0.00,,---,0.00,309.00,VWS V14.01,2013-04-21 21:09:00,
2013-04-21 16:11:00,75.5,52.7,30.12,ESE,102,1.0,5.0,45,0.00,,---,0.00,302.00,VWS V14.01,2013-04-21 21:11:00,
2013-04-21 16:12:00,75.7,53.5,30.12,South,191,1.0,5.0,46,0.00,,---,0.00,329.00,VWS V14.01,2013-04-21 21:12:00,
2013-04-21 16:15:00,75.8,53.0,30.12,ENE,59,1.0,5.0,45,0.00,,---,0.00,195.00,VWS V14.01,2013-04-21 21:15:00,
2013-04-21 16:17:00,75.5,53.3,30.12,ENE,67,1.0,5.0,46,0.00,,---,0.00,169.00,VWS V14.01,2013-04-21 21:17:00,
2013-04-21 16:18:00,75.0,51.6,30.12,East,81,1.0,5.0,44,0.00,,---,0.00,156.00,VWS V14.01,2013-04-21 21:18:00,
2013-04-21 16:20:00,74.1,52.0,30.12,East,88,0.0,5.0,46,0.00,,---,0.00,149.00,VWS V14.01,2013-04-21 21:20:00,
2013-04-21 16:22:00,73.7,52.8,30.12,East,88,0.0,5.0,48,0.00,,---,0.00,125.00,VWS V14.01,2013-04-21 21:22:00,
2013-04-21 16:24:00,73.7,53.4,30.12,East,88,0.0,5.0,49,0.00,,---,0.00,121.00,VWS V14.01,2013-04-21 21:24:00,
2013-04-21 16:26:00,73.9,54.7,30.12,East,88,0.0,5.0,51,0.00,,---,0.00,130.00,VWS V14.01,2013-04-21 21:26:00,
2013-04-21 16:28:00,73.7,54.5,30.12,South,176,2.0,5.0,51,0.00,,---,0.00,682.00,VWS V14.01,2013-04-21 21:28:00,
2013-04-21 16:29:00,73.1,52.3,30.12,South,184,0.0,5.0,48,0.00,,---,0.00,657.00,VWS V14.01,2013-04-21 21:29:00,
2013-04-21 16:30:00,73.2,52.9,30.12,ENE,68,1.0,1.0,49,0.00,,---,0.00,657.00,VWS V14.01,2013-04-21 21:30:00,
2013-04-21 16:32:00,73.7,52.8,30.12,NNW,338,0.0,3.0,48,0.00,,---,0.00,128.00,VWS V14.01,2013-04-21 21:32:00,
2013-04-21 16:33:00,73.9,53.0,30.12,NNW,338,0.0,3.0,48,0.00,,---,0.00,162.00,VWS V14.01,2013-04-21 21:33:00,
2013-04-21 16:35:00,74.3,52.2,30.11,NNW,338,1.0,3.0,46,0.00,,---,0.00,666.00,VWS V14.01,2013-04-21 21:35:00,
2013-04-21 16:36:00,74.8,53.8,30.11,NNW,339,2.0,3.0,48,0.00,,---,0.00,663.00,VWS V14.01,2013-04-21 21:36:00,
2013-04-21 16:38:00,76.0,53.2,30.11,NNW,339,2.0,3.0,45,0.00,,---,0.00,656.00,VWS V14.01,2013-04-21 21:38:00,
2013-04-21 16:41:00,75.4,51.4,30.11,NNW,339,0.0,3.0,43,0.00,,---,0.00,647.00,VWS V14.01,2013-04-21 21:41:00,
2013-04-21 16:42:00,75.4,52.0,30.11,NNW,339,0.0,3.0,44,0.00,,---,0.00,160.00,VWS V14.01,2013-04-21 21:42:00,
2013-04-21 16:43:00,75.3,52.5,30.11,NNW,339,2.0,3.0,45,0.00,,---,0.00,158.00,VWS V14.01,2013-04-21 21:43:00,
2013-04-21 16:45:00,74.6,51.9,30.11,NNW,339,1.0,3.0,45,0.00,,---,0.00,211.00,VWS V14.01,2013-04-21 21:45:00,
2013-04-21 16:46:00,73.8,51.8,30.12,NNW,339,2.0,3.0,46,0.00,,---,0.00,236.00,VWS V14.01,2013-04-21 21:46:00,
2013-04-21 16:47:00,73.6,52.2,30.12,NNW,339,1.0,3.0,47,0.00,,---,0.00,269.00,VWS V14.01,2013-04-21 21:47:00,
2013-04-21 16:48:00,73.5,52.1,30.12,NNW,339,1.0,3.0,47,0.00,,---,0.00,269.00,VWS V14.01,2013-04-21 21:48:00,
2013-04-21 16:50:00,74.4,54.0,30.12,ENE,62,1.0,3.0,49,0.00,,---,0.00,603.00,VWS V14.01,2013-04-21 21:50:00,
2013-04-21 16:51:00,74.9,53.9,30.11,ENE,62,0.0,3.0,48,0.00,,---,0.00,594.00,VWS V14.01,2013-04-21 21:51:00,
2013-04-21 16:53:00,76.0,53.2,30.11,ESE,123,2.0,3.0,45,0.00,,---,0.00,527.00,VWS V14.01,2013-04-21 21:53:00,
2013-04-21 16:54:00,76.0,52.5,30.11,SE,125,0.0,3.0,44,0.00,,---,0.00,527.00,VWS V14.01,2013-04-21 21:54:00,
2013-04-21 16:57:00,75.6,53.4,30.11,SSE,149,0.0,4.0,46,0.00,,---,0.00,538.00,VWS V14.01,2013-04-21 21:57:00,
2013-04-21 16:59:00,75.4,53.2,30.12,SSE,149,1.0,4.0,46,0.00,,---,0.00,299.00,VWS V14.01,2013-04-21 21:59:00,
2013-04-21 17:02:00,75.4,53.8,30.11,SSE,149,1.0,2.0,47,0.00,,---,0.00,116.00,VWS V14.01,2013-04-21 22:02:00,
2013-04-21 17:04:00,75.1,54.1,30.12,SSE,149,0.0,2.0,48,0.00,,---,0.00,104.00,VWS V14.01,2013-04-21 22:04:00,
2013-04-21 17:05:00,74.6,53.6,30.12,SSE,149,0.0,2.0,48,0.00,,---,0.00,93.00,VWS V14.01,2013-04-21 22:05:00,
2013-04-21 17:06:00,74.4,54.0,30.12,SSE,149,0.0,2.0,49,0.00,,---,0.00,93.00,VWS V14.01,2013-04-21 22:06:00,
2013-04-21 17:07:00,74.4,55.1,30.12,SSE,149,0.0,2.0,51,0.00,,---,0.00,93.00,VWS V14.01,2013-04-21 22:07:00,
2013-04-21 17:09:00,74.2,54.4,30.12,SSE,149,0.0,2.0,50,0.00,,---,0.00,97.00,VWS V14.01,2013-04-21 22:09:00,
2013-04-21 17:11:00,74.1,55.4,30.12,SSE,149,0.0,2.0,52,0.00,,---,0.00,125.00,VWS V14.01,2013-04-21 22:11:00,
2013-04-21 17:13:00,73.7,53.4,30.12,SSE,149,0.0,2.0,49,0.00,,---,0.00,513.00,VWS V14.01,2013-04-21 22:13:00,
2013-04-21 17:15:00,72.8,53.6,30.12,SSE,149,2.0,2.0,51,0.00,,---,0.00,504.00,VWS V14.01,2013-04-21 22:15:00,
2013-04-21 17:17:00,72.8,52.5,30.11,SSE,149,0.0,2.0,49,0.00,,---,0.00,496.00,VWS V14.01,2013-04-21 22:17:00,
2013-04-21 17:18:00,72.9,53.7,30.11,SSE,149,0.0,2.0,51,0.00,,---,0.00,489.00,VWS V14.01,2013-04-21 22:18:00,
2013-04-21 17:20:00,73.9,55.2,30.11,SSE,149,5.0,5.0,52,0.00,,---,0.00,476.00,VWS V14.01,2013-04-21 22:20:00,
2013-04-21 17:21:00,74.2,53.3,30.11,SSE,155,2.0,6.0,48,0.00,,---,0.00,473.00,VWS V14.01,2013-04-21 22:21:00,
2013-04-21 17:22:00,74.2,52.1,30.11,SSE,155,1.0,6.0,46,0.00,,---,0.00,466.00,VWS V14.01,2013-04-21 22:22:00,
2013-04-21 17:23:00,74.2,52.1,30.11,SSE,155,2.0,6.0,46,0.00,,---,0.00,462.00,VWS V14.01,2013-04-21 22:23:00,
2013-04-21 17:24:00,74.1,52.0,30.11,SSE,155,0.0,6.0,46,0.00,,---,0.00,462.00,VWS V14.01,2013-04-21 22:24:00,
2013-04-21 17:26:00,73.9,51.8,30.11,SSE,159,0.0,6.0,46,0.00,,---,0.00,448.00,VWS V14.01,2013-04-21 22:26:00,
2013-04-21 17:27:00,74.9,55.0,30.11,SSE,159,0.0,6.0,50,0.00,,---,0.00,336.00,VWS V14.01,2013-04-21 22:27:00,
2013-04-21 17:29:00,74.9,54.5,30.11,SSE,158,3.0,6.0,49,0.00,,---,0.00,336.00,VWS V14.01,2013-04-21 22:29:00,
2013-04-21 17:31:00,76.3,54.6,30.11,NNE,21,0.0,3.0,47,0.00,,---,0.00,199.00,VWS V14.01,2013-04-21 22:31:00,
2013-04-21 17:32:00,77.0,55.2,30.11,NNE,21,0.0,3.0,47,0.00,,---,0.00,452.00,VWS V14.01,2013-04-21 22:32:00,
2013-04-21 17:33:00,78.1,55.7,30.11,NNE,21,1.0,3.0,46,0.00,,---,0.00,455.00,VWS V14.01,2013-04-21 22:33:00,
2013-04-21 17:34:00,77.6,51.4,30.11,West,268,2.0,4.0,40,0.00,,---,0.00,457.00,VWS V14.01,2013-04-21 22:34:00,
2013-04-21 17:38:00,76.2,52.7,30.11,NNE,12,0.0,4.0,44,0.00,,---,0.00,464.00,VWS V14.01,2013-04-21 22:38:00,
2013-04-21 17:39:00,76.6,53.1,30.11,NNE,12,0.0,4.0,44,0.00,,---,0.00,464.00,VWS V14.01,2013-04-21 22:39:00,
2013-04-21 17:40:00,77.0,53.4,30.11,NNE,12,1.0,4.0,44,0.00,,---,0.00,464.00,VWS V14.01,2013-04-21 22:40:00,
2013-04-21 17:43:00,77.2,52.4,30.11,West,266,0.0,4.0,42,0.00,,---,0.00,461.00,VWS V14.01,2013-04-21 22:43:00,
2013-04-21 17:45:00,77.2,53.0,30.11,NNW,338,2.0,4.0,43,0.00,,---,0.00,454.00,VWS V14.01,2013-04-21 22:45:00,
2013-04-21 17:46:00,77.4,52.5,30.11,NNW,338,0.0,4.0,42,0.00,,---,0.00,446.00,VWS V14.01,2013-04-21 22:46:00,
2013-04-21 17:47:00,77.8,52.2,30.11,NNW,341,2.0,6.0,41,0.00,,---,0.00,443.00,VWS V14.01,2013-04-21 22:47:00,
2013-04-21 17:48:00,77.6,52.1,30.11,NNE,30,3.0,6.0,41,0.00,,---,0.00,439.00,VWS V14.01,2013-04-21 22:48:00,
2013-04-21 17:49:00,77.6,54.0,30.11,NNE,16,1.0,6.0,44,0.00,,---,0.00,434.00,VWS V14.01,2013-04-21 22:49:00,
2013-04-21 17:51:00,77.9,53.6,30.11,NE,46,3.0,6.0,43,0.00,,---,0.00,425.00,VWS V14.01,2013-04-21 22:51:00,
2013-04-21 17:53:00,77.7,54.7,30.11,ESE,121,0.0,6.0,45,0.00,,---,0.00,413.00,VWS V14.01,2013-04-21 22:53:00,
2013-04-21 17:55:00,77.5,53.3,30.11,ESE,121,0.0,6.0,43,0.00,,---,0.00,404.00,VWS V14.01,2013-04-21 22:55:00,
2013-04-21 17:56:00,77.6,54.0,30.11,ESE,121,0.0,6.0,44,0.00,,---,0.00,397.00,VWS V14.01,2013-04-21 22:56:00,
2013-04-21 17:57:00,77.7,54.1,30.11,ESE,121,1.0,6.0,44,0.00,,---,0.00,392.00,VWS V14.01,2013-04-21 22:57:00,
2013-04-21 17:58:00,77.9,54.9,30.11,ENE,62,2.0,6.0,45,0.00,,---,0.00,380.00,VWS V14.01,2013-04-21 22:58:00,
2013-04-21 17:59:00,78.0,54.3,30.11,ENE,61,0.0,6.0,44,0.00,,---,0.00,374.00,VWS V14.01,2013-04-21 22:59:00,
2013-04-21 18:00:00,78.0,54.3,30.10,ENE,61,0.0,0.0,44,0.00,,---,0.00,367.00,VWS V14.01,2013-04-21 23:00:00,
2013-04-21 18:02:00,77.8,54.2,30.10,ENE,61,0.0,1.0,44,0.00,,---,0.00,353.00,VWS V14.01,2013-04-21 23:02:00,
2013-04-21 18:04:00,77.7,54.7,30.10,ENE,61,0.0,1.0,45,0.00,,---,0.00,334.00,VWS V14.01,2013-04-21 23:04:00,
2013-04-21 18:05:00,77.1,53.5,30.10,ENE,61,0.0,1.0,44,0.00,,---,0.00,322.00,VWS V14.01,2013-04-21 23:05:00,
2013-04-21 18:06:00,77.2,53.6,30.10,ENE,61,0.0,1.0,44,0.00,,---,0.00,315.00,VWS V14.01,2013-04-21 23:06:00,
2013-04-21 18:08:00,77.1,54.2,30.10,ENE,61,0.0,1.0,45,0.00,,---,0.00,295.00,VWS V14.01,2013-04-21 23:08:00,
2013-04-21 18:09:00,77.0,54.7,30.10,ENE,61,1.0,1.0,46,0.00,,---,0.00,290.00,VWS V14.01,2013-04-21 23:09:00,
2013-04-21 18:12:00,75.3,53.1,30.10,ENE,61,0.0,2.0,46,0.00,,---,0.00,127.00,VWS V14.01,2013-04-21 23:12:00,
2013-04-21 18:13:00,75.1,54.7,30.10,ENE,61,0.0,2.0,49,0.00,,---,0.00,116.00,VWS V14.01,2013-04-21 23:13:00,
2013-04-21 18:14:00,75.1,55.8,30.11,ENE,61,0.0,2.0,51,0.00,,---,0.00,86.00,VWS V14.01,2013-04-21 23:14:00,
2013-04-21 18:15:00,75.1,55.8,30.10,ENE,61,0.0,2.0,51,0.00,,---,0.00,76.00,VWS V14.01,2013-04-21 23:15:00,
2013-04-21 18:19:00,73.8,55.6,30.11,ENE,61,0.0,2.0,53,0.00,,---,0.00,54.00,VWS V14.01,2013-04-21 23:19:00,
2013-04-21 18:20:00,73.6,57.0,30.11,ENE,61,0.0,2.0,56,0.00,,---,0.00,54.00,VWS V14.01,2013-04-21 23:20:00,
2013-04-21 18:21:00,73.1,57.0,30.11,ENE,61,0.0,2.0,57,0.00,,---,0.00,53.00,VWS V14.01,2013-04-21 23:21:00,
2013-04-21 18:23:00,72.9,56.8,30.11,ENE,61,0.0,2.0,57,0.00,,---,0.00,51.00,VWS V14.01,2013-04-21 23:23:00,
2013-04-21 18:24:00,72.4,57.3,30.11,ENE,61,0.0,2.0,59,0.00,,---,0.00,51.00,VWS V14.01,2013-04-21 23:24:00,
2013-04-21 18:25:00,72.0,56.9,30.11,ENE,61,0.0,2.0,59,0.00,,---,0.00,51.00,VWS V14.01,2013-04-21 23:25:00,
2013-04-21 18:26:00,71.6,56.1,30.11,ENE,61,0.0,2.0,58,0.00,,---,0.00,49.00,VWS V14.01,2013-04-21 23:26:00,
2013-04-21 18:28:00,71.3,56.2,30.11,ENE,61,0.0,2.0,59,0.00,,---,0.00,49.00,VWS V14.01,2013-04-21 23:28:00,
2013-04-21 18:30:00,70.8,57.2,30.11,ENE,61,0.0,0.0,62,0.00,,---,0.00,47.00,VWS V14.01,2013-04-21 23:30:00,
2013-04-21 18:31:00,70.5,56.9,30.11,ENE,61,0.0,0.0,62,0.00,,---,0.00,47.00,VWS V14.01,2013-04-21 23:31:00,
2013-04-21 18:32:00,70.4,57.2,30.11,ENE,61,0.0,0.0,63,0.00,,---,0.00,46.00,VWS V14.01,2013-04-21 23:32:00,
2013-04-21 18:33:00,70.2,56.6,30.11,ENE,61,0.0,0.0,62,0.00,,---,0.00,46.00,VWS V14.01,2013-04-21 23:33:00,
2013-04-21 18:34:00,70.1,56.9,30.11,ENE,61,0.0,0.0,63,0.00,,---,0.00,46.00,VWS V14.01,2013-04-21 23:34:00,
2013-04-21 18:36:00,69.5,56.4,30.11,ENE,61,0.0,0.0,63,0.00,,---,0.00,44.00,VWS V14.01,2013-04-21 23:36:00,
2013-04-21 18:38:00,69.2,57.0,30.11,ENE,61,0.0,0.0,65,0.00,,---,0.00,42.00,VWS V14.01,2013-04-21 23:38:00,
2013-04-21 18:39:00,69.1,57.7,30.11,ENE,61,0.0,0.0,67,0.00,,---,0.00,42.00,VWS V14.01,2013-04-21 23:39:00,
2013-04-21 18:40:00,69.0,57.6,30.11,ENE,61,0.0,0.0,67,0.00,,---,0.00,42.00,VWS V14.01,2013-04-21 23:40:00,
2013-04-21 18:42:00,68.8,57.0,30.11,ENE,61,0.0,0.0,66,0.00,,---,0.00,42.00,VWS V14.01,2013-04-21 23:42:00,
2013-04-21 18:43:00,68.2,56.4,30.11,ENE,61,0.0,0.0,66,0.00,,---,0.00,42.00,VWS V14.01,2013-04-21 23:43:00,
2013-04-21 18:45:00,67.7,56.4,30.11,ENE,61,0.0,0.0,67,0.00,,---,0.00,40.00,VWS V14.01,2013-04-21 23:45:00,
2013-04-21 18:46:00,67.7,56.4,30.11,ENE,61,0.0,0.0,67,0.00,,---,0.00,40.00,VWS V14.01,2013-04-21 23:46:00,
2013-04-21 18:48:00,67.3,56.8,30.11,ENE,61,0.0,0.0,69,0.00,,---,0.00,40.00,VWS V14.01,2013-04-21 23:48:00,
2013-04-21 18:50:00,67.0,56.5,30.11,ENE,61,0.0,0.0,69,0.00,,---,0.00,42.00,VWS V14.01,2013-04-21 23:50:00,
2013-04-21 18:52:00,66.9,56.8,30.11,ENE,61,0.0,0.0,70,0.00,,---,0.00,42.00,VWS V14.01,2013-04-21 23:52:00,
2013-04-21 18:53:00,66.8,56.7,30.11,ENE,61,0.0,0.0,70,0.00,,---,0.00,44.00,VWS V14.01,2013-04-21 23:53:00,
2013-04-21 18:54:00,66.8,56.7,30.11,ENE,61,0.0,0.0,70,0.00,,---,0.00,44.00,VWS V14.01,2013-04-21 23:54:00,
2013-04-21 18:55:00,66.6,56.5,30.11,ENE,61,0.0,0.0,70,0.00,,---,0.00,42.00,VWS V14.01,2013-04-21 23:55:00,
2013-04-21 18:58:00,65.9,55.8,30.11,ENE,61,0.0,0.0,70,0.00,,---,0.00,42.00,VWS V14.01,2013-04-21 23:58:00,
2013-04-21 18:59:00,65.9,56.6,30.11,ENE,61,0.0,0.0,72,0.00,,---,0.00,40.00,VWS V14.01,2013-04-21 23:59:00,
2013-04-21 19:00:00,65.8,56.5,30.11,ENE,61,0.0,0.0,72,0.00,,---,0.00,40.00,VWS V14.01,2013-04-22 00:00:00,
2013-04-21 19:02:00,65.8,56.5,30.11,ENE,61,0.0,0.0,72,0.00,,---,0.00,42.00,VWS V14.01,2013-04-22 00:02:00,
2013-04-21 19:03:00,65.6,56.7,30.11,ENE,61,0.0,0.0,73,0.00,,---,0.00,44.00,VWS V14.01,2013-04-22 00:03:00,
2013-04-21 19:04:00,65.6,56.7,30.11,ENE,61,0.0,0.0,73,0.00,,---,0.00,42.00,VWS V14.01,2013-04-22 00:04:00,
2013-04-21 19:05:00,65.6,57.1,30.11,ENE,61,0.0,0.0,74,0.00,,---,0.00,42.00,VWS V14.01,2013-04-22 00:05:00,
2013-04-21 19:06:00,65.6,57.1,30.11,ENE,61,0.0,0.0,74,0.00,,---,0.00,42.00,VWS V14.01,2013-04-22 00:06:00,
2013-04-21 19:07:00,65.5,57.0,30.11,ENE,61,0.0,0.0,74,0.00,,---,0.00,37.00,VWS V14.01,2013-04-22 00:07:00,
2013-04-21 19:10:00,65.4,57.3,30.11,ENE,61,0.0,0.0,75,0.00,,---,0.00,35.00,VWS V14.01,2013-04-22 00:10:00,
2013-04-21 19:11:00,65.5,57.7,30.11,ENE,61,0.0,0.0,76,0.00,,---,0.00,33.00,VWS V14.01,2013-04-22 00:11:00,
2013-04-21 19:13:00,65.5,57.4,30.11,ENE,61,0.0,0.0,75,0.00,,---,0.00,30.00,VWS V14.01,2013-04-22 00:13:00,
2013-04-21 19:14:00,65.6,57.5,30.11,ENE,61,0.0,0.0,75,0.00,,---,0.00,30.00,VWS V14.01,2013-04-22 00:14:00,
2013-04-21 19:15:00,65.6,57.8,30.11,ENE,61,0.0,0.0,76,0.00,,---,0.00,30.00,VWS V14.01,2013-04-22 00:15:00,
2013-04-21 19:16:00,65.6,57.8,30.11,ENE,61,0.0,0.0,76,0.00,,---,0.00,26.00,VWS V14.01,2013-04-22 00:16:00,
2013-04-21 19:18:00,65.5,58.1,30.11,ENE,61,0.0,0.0,77,0.00,,---,0.00,26.00,VWS V14.01,2013-04-22 00:18:00,
2013-04-21 19:19:00,65.3,57.2,30.11,ENE,61,0.0,0.0,75,0.00,,---,0.00,26.00,VWS V14.01,2013-04-22 00:19:00,
2013-04-21 19:20:00,65.3,57.2,30.11,ENE,61,0.0,0.0,75,0.00,,---,0.00,26.00,VWS V14.01,2013-04-22 00:20:00,
2013-04-21 19:22:00,64.8,57.4,30.11,ENE,61,0.0,0.0,77,0.00,,---,0.00,23.00,VWS V14.01,2013-04-22 00:22:00,
2013-04-21 19:23:00,64.7,57.3,30.11,ENE,61,0.0,0.0,77,0.00,,---,0.00,23.00,VWS V14.01,2013-04-22 00:23:00,
2013-04-21 19:25:00,64.5,57.1,30.11,ENE,61,0.0,0.0,77,0.00,,---,0.00,21.00,VWS V14.01,2013-04-22 00:25:00,
2013-04-21 19:27:00,64.3,57.0,30.11,ENE,61,0.0,0.0,77,0.00,,---,0.00,19.00,VWS V14.01,2013-04-22 00:27:00,
2013-04-21 19:29:00,63.8,56.5,30.11,ENE,61,0.0,0.0,77,0.00,,---,0.00,18.00,VWS V14.01,2013-04-22 00:29:00,
2013-04-21 19:30:00,63.7,56.0,30.11,ENE,61,0.0,0.0,76,0.00,,---,0.00,18.00,VWS V14.01,2013-04-22 00:30:00,
2013-04-21 19:33:00,63.6,57.0,30.11,ENE,61,0.0,0.0,79,0.00,,---,0.00,14.00,VWS V14.01,2013-04-22 00:33:00,
2013-04-21 19:34:00,63.5,56.9,30.11,ENE,61,0.0,0.0,79,0.00,,---,0.00,14.00,VWS V14.01,2013-04-22 00:34:00,
2013-04-21 19:35:00,63.4,56.8,30.11,ENE,61,0.0,0.0,79,0.00,,---,0.00,14.00,VWS V14.01,2013-04-22 00:35:00,
2013-04-21 19:37:00,63.2,56.6,30.11,ENE,61,0.0,0.0,79,0.00,,---,0.00,12.00,VWS V14.01,2013-04-22 00:37:00,
2013-04-21 19:38:00,63.0,56.0,30.11,ENE,61,0.0,0.0,78,0.00,,---,0.00,11.00,VWS V14.01,2013-04-22 00:38:00,
2013-04-21 19:39:00,62.9,55.9,30.11,ENE,61,0.0,0.0,78,0.00,,---,0.00,11.00,VWS V14.01,2013-04-22 00:39:00,
2013-04-21 19:41:00,62.5,55.6,30.11,ENE,61,0.0,0.0,78,0.00,,---,0.00,9.00,VWS V14.01,2013-04-22 00:41:00,
2013-04-21 19:44:00,62.4,56.2,30.11,ENE,61,0.0,0.0,80,0.00,,---,0.00,7.00,VWS V14.01,2013-04-22 00:44:00,
2013-04-21 19:45:00,62.3,56.1,30.11,ENE,61,0.0,0.0,80,0.00,,---,0.00,5.00,VWS V14.01,2013-04-22 00:45:00,
2013-04-21 19:46:00,62.2,56.0,30.11,ENE,61,0.0,0.0,80,0.00,,---,0.00,5.00,VWS V14.01,2013-04-22 00:46:00,
2013-04-21 19:47:00,62.1,55.9,30.11,ENE,61,0.0,0.0,80,0.00,,---,0.00,5.00,VWS V14.01,2013-04-22 00:47:00,
2013-04-21 19:50:00,61.8,55.6,30.11,ENE,61,0.0,0.0,80,0.00,,---,0.00,0.00,VWS V14.01,2013-04-22 00:50:00,
2013-04-21 19:51:00,61.7,55.5,30.11,ENE,61,0.0,0.0,80,0.00,,---,0.00,0.00,VWS V14.01,2013-04-22 00:51:00,
2013-04-21 19:53:00,61.4,55.2,30.11,ENE,61,0.0,0.0,80,0.00,,---,0.00,0.00,VWS V14.01,2013-04-22 00:53:00,
2013-04-21 19:55:00,61.0,54.8,30.12,ENE,61,0.0,1.0,80,0.00,,---,0.00,0.00,VWS V14.01,2013-04-22 00:55:00,
2013-04-21 19:56:00,60.9,54.7,30.12,ENE,61,0.0,1.0,80,0.00,,---,0.00,0.00,VWS V14.01,2013-04-22 00:56:00,
2013-04-21 19:57:00,60.7,54.8,30.12,ENE,61,0.0,1.0,81,0.00,,---,0.00,0.00,VWS V14.01,2013-04-22 00:57:00,
2013-04-21 19:58:00,60.5,55.0,30.12,ENE,61,0.0,1.0,82,0.00,,---,0.00,0.00,VWS V14.01,2013-04-22 00:58:00,
2013-04-21 19:59:00,60.4,54.9,30.12,ENE,61,0.0,1.0,82,0.00,,---,0.00,0.00,VWS V14.01,2013-04-22 00:59:00,
2013-04-21 20:01:00,60.3,55.1,30.12,ENE,61,0.0,0.0,83,0.00,,---,0.00,0.00,VWS V14.01,2013-04-22 01:01:00,
2013-04-21 20:03:00,60.1,55.3,30.12,ENE,61,0.0,0.0,84,0.00,,---,0.00,0.00,VWS V14.01,2013-04-22 01:03:00,
2013-04-21 20:05:00,60.0,55.2,30.12,ENE,61,0.0,0.0,84,0.00,,---,0.00,0.00,VWS V14.01,2013-04-22 01:05:00,
2013-04-21 20:06:00,59.9,55.1,30.11,ENE,61,0.0,0.0,84,0.00,,---,0.00,0.00,VWS V14.01,2013-04-22 01:06:00,
2013-04-21 20:07:00,59.8,55.0,30.12,ENE,61,0.0,0.0,84,0.00,,---,0.00,0.00,VWS V14.01,2013-04-22 01:07:00,
2013-04-21 20:08:00,59.5,54.7,30.12,ENE,61,0.0,0.0,84,0.00,,---,0.00,0.00,VWS V14.01,2013-04-22 01:08:00,
2013-04-21 20:10:00,59.3,54.8,30.12,ENE,61,0.0,0.0,85,0.00,,---,0.00,0.00,VWS V14.01,2013-04-22 01:10:00,
2013-04-21 20:11:00,59.2,54.7,30.12,ENE,61,0.0,0.0,85,0.00,,---,0.00,0.00,VWS V14.01,2013-04-22 01:11:00,
2013-04-21 20:13:00,59.2,54.7,30.12,ENE,61,0.0,0.0,85,0.00,,---,0.00,0.00,VWS V14.01,2013-04-22 01:13:00,
2013-04-21 20:15:00,59.0,54.5,30.12,ENE,61,0.0,0.0,85,0.00,,---,0.00,0.00,VWS V14.01,2013-04-22 01:15:00,
2013-04-21 20:16:00,58.9,54.4,30.12,ENE,61,0.0,0.0,85,0.00,,---,0.00,0.00,VWS V14.01,2013-04-22 01:16:00,
2013-04-21 20:17:00,58.8,54.3,30.12,ENE,61,0.0,0.0,85,0.00,,---,0.00,0.00,VWS V14.01,2013-04-22 01:17:00,
2013-04-21 20:19:00,58.7,54.2,30.12,ENE,61,0.0,0.0,85,0.00,,---,0.00,0.00,VWS V14.01,2013-04-22 01:19:00,
2013-04-21 20:21:00,58.6,54.4,30.12,ENE,61,0.0,0.0,86,0.00,,---,0.00,0.00,VWS V14.01,2013-04-22 01:21:00,
2013-04-21 20:23:00,58.4,54.2,30.12,ENE,61,0.0,0.0,86,0.00,,---,0.00,0.00,VWS V14.01,2013-04-22 01:23:00,
2013-04-21 20:25:00,58.3,54.1,30.12,ENE,61,0.0,0.0,86,0.00,,---,0.00,0.00,VWS V14.01,2013-04-22 01:25:00,
2013-04-21 20:27:00,58.1,54.3,30.12,ENE,61,0.0,0.0,87,0.00,,---,0.00,0.00,VWS V14.01,2013-04-22 01:27:00,
2013-04-21 20:28:00,58.1,54.3,30.12,ENE,61,0.0,0.0,87,0.00,,---,0.00,0.00,VWS V14.01,2013-04-22 01:28:00,
2013-04-21 20:29:00,58.0,54.2,30.12,ENE,61,0.0,0.0,87,0.00,,---,0.00,0.00,VWS V14.01,2013-04-22 01:29:00,
2013-04-21 20:33:00,57.8,54.0,30.12,ENE,61,0.0,0.0,87,0.00,,---,0.00,0.00,VWS V14.01,2013-04-22 01:33:00,
2013-04-21 20:34:00,57.8,54.0,30.12,ENE,61,0.0,0.0,87,0.00,,---,0.00,0.00,VWS V14.01,2013-04-22 01:34:00,
2013-04-21 20:35:00,57.8,54.0,30.12,ENE,61,0.0,0.0,87,0.00,,---,0.00,0.00,VWS V14.01,2013-04-22 01:35:00,
2013-04-21 20:36:00,57.7,54.2,30.12,ENE,61,0.0,0.0,88,0.00,,---,0.00,0.00,VWS V14.01,2013-04-22 01:36:00,
2013-04-21 20:38:00,57.6,54.1,30.13,ENE,61,0.0,0.0,88,0.00,,---,0.00,0.00,VWS V14.01,2013-04-22 01:38:00,
2013-04-21 20:40:00,57.4,53.6,30.13,ENE,61,0.0,0.0,87,0.00,,---,0.00,0.00,VWS V14.01,2013-04-22 01:40:00,
2013-04-21 20:41:00,57.3,53.8,30.13,ENE,61,0.0,0.0,88,0.00,,---,0.00,0.00,VWS V14.01,2013-04-22 01:41:00,
2013-04-21 20:43:00,57.1,53.6,30.13,ENE,61,0.0,0.0,88,0.00,,---,0.00,0.00,VWS V14.01,2013-04-22 01:43:00,
2013-04-21 20:44:00,57.0,53.5,30.13,ENE,61,0.0,0.0,88,0.00,,---,0.00,0.00,VWS V14.01,2013-04-22 01:44:00,
2013-04-21 20:47:00,56.9,53.4,30.13,ENE,61,0.0,0.0,88,0.00,,---,0.00,0.00,VWS V14.01,2013-04-22 01:47:00,
2013-04-21 20:48:00,56.8,53.3,30.13,ENE,61,0.0,0.0,88,0.00,,---,0.00,0.00,VWS V14.01,2013-04-22 01:48:00,
2013-04-21 20:49:00,56.8,53.6,30.13,ENE,61,0.0,0.0,89,0.00,,---,0.00,0.00,VWS V14.01,2013-04-22 01:49:00,
2013-04-21 20:50:00,56.7,53.5,30.13,ENE,61,0.0,0.0,89,0.00,,---,0.00,0.00,VWS V14.01,2013-04-22 01:50:00,
2013-04-21 20:51:00,56.7,53.5,30.13,ENE,61,0.0,0.0,89,0.00,,---,0.00,0.00,VWS V14.01,2013-04-22 01:51:00,
2013-04-21 20:53:00,56.5,53.3,30.13,ENE,61,0.0,0.0,89,0.00,,---,0.00,0.00,VWS V14.01,2013-04-22 01:53:00,
2013-04-21 20:55:00,56.4,53.2,30.13,ENE,61,0.0,0.0,89,0.00,,---,0.00,0.00,VWS V14.01,2013-04-22 01:55:00,
2013-04-21 20:56:00,56.4,53.2,30.13,ENE,61,0.0,0.0,89,0.00,,---,0.00,0.00,VWS V14.01,2013-04-22 01:56:00,
2013-04-21 20:58:00,56.3,53.1,30.13,ENE,61,0.0,0.0,89,0.00,,---,0.00,0.00,VWS V14.01,2013-04-22 01:58:00,
2013-04-21 20:59:00,56.2,53.0,30.13,ENE,61,0.0,0.0,89,0.00,,---,0.00,0.00,VWS V14.01,2013-04-22 01:59:00,
2013-04-21 21:00:00,56.2,53.3,30.13,ENE,61,0.0,0.0,90,0.00,,---,0.00,0.00,VWS V14.01,2013-04-22 02:00:00,
2013-04-21 21:02:00,56.0,53.1,30.14,ENE,61,0.0,0.0,90,0.00,,---,0.00,0.00,VWS V14.01,2013-04-22 02:02:00,
2013-04-21 21:04:00,55.8,52.9,30.14,ENE,61,0.0,0.0,90,0.00,,---,0.00,0.00,VWS V14.01,2013-04-22 02:04:00,
2013-04-21 21:07:00,55.6,52.7,30.14,ENE,61,0.0,0.0,90,0.00,,---,0.00,0.00,VWS V14.01,2013-04-22 02:07:00,
2013-04-21 21:08:00,55.6,52.7,30.14,ENE,61,0.0,0.0,90,0.00,,---,0.00,0.00,VWS V14.01,2013-04-22 02:08:00,
2013-04-21 21:09:00,55.6,52.7,30.14,ENE,61,0.0,0.0,90,0.00,,---,0.00,0.00,VWS V14.01,2013-04-22 02:09:00,
2013-04-21 21:10:00,55.6,52.7,30.14,ENE,61,0.0,0.0,90,0.00,,---,0.00,0.00,VWS V14.01,2013-04-22 02:10:00,
2013-04-21 21:11:00,55.5,52.6,30.14,ENE,61,0.0,0.0,90,0.00,,---,0.00,0.00,VWS V14.01,2013-04-22 02:11:00,
2013-04-21 21:14:00,55.5,52.6,30.14,ENE,61,0.0,0.0,90,0.00,,---,0.00,0.00,VWS V14.01,2013-04-22 02:14:00,
2013-04-21 21:16:00,55.5,52.6,30.14,ENE,61,0.0,0.0,90,0.00,,---,0.00,0.00,VWS V14.01,2013-04-22 02:16:00,
2013-04-21 21:17:00,55.5,52.6,30.14,ENE,61,0.0,0.0,90,0.00,,---,0.00,0.00,VWS V14.01,2013-04-22 02:17:00,
2013-04-21 21:19:00,55.3,52.7,30.14,ENE,61,0.0,0.0,91,0.00,,---,0.00,0.00,VWS V14.01,2013-04-22 02:19:00,
2013-04-21 21:20:00,55.3,52.7,30.14,ENE,61,0.0,0.0,91,0.00,,---,0.00,0.00,VWS V14.01,2013-04-22 02:20:00,
2013-04-21 21:21:00,55.3,52.7,30.14,ENE,61,0.0,0.0,91,0.00,,---,0.00,0.00,VWS V14.01,2013-04-22 02:21:00,
2013-04-21 21:22:00,55.3,52.7,30.14,ENE,61,0.0,0.0,91,0.00,,---,0.00,0.00,VWS V14.01,2013-04-22 02:22:00,
2013-04-21 21:24:00,55.1,52.5,30.14,ENE,61,0.0,0.0,91,0.00,,---,0.00,0.00,VWS V14.01,2013-04-22 02:24:00,
2013-04-21 21:25:00,55.1,52.5,30.14,ENE,61,0.0,0.0,91,0.00,,---,0.00,0.00,VWS V14.01,2013-04-22 02:25:00,
2013-04-21 21:26:00,55.0,52.4,30.15,ENE,61,0.0,0.0,91,0.00,,---,0.00,0.00,VWS V14.01,2013-04-22 02:26:00,
2013-04-21 21:29:00,54.9,52.3,30.15,ENE,61,0.0,0.0,91,0.00,,---,0.00,0.00,VWS V14.01,2013-04-22 02:29:00,
2013-04-21 21:30:00,54.9,52.6,30.15,ENE,61,0.0,0.0,92,0.00,,---,0.00,0.00,VWS V14.01,2013-04-22 02:30:00,
2013-04-21 21:31:00,54.9,52.6,30.15,ENE,61,0.0,0.0,92,0.00,,---,0.00,0.00,VWS V14.01,2013-04-22 02:31:00,
2013-04-21 21:32:00,54.9,52.6,30.15,ENE,61,0.0,0.0,92,0.00,,---,0.00,0.00,VWS V14.01,2013-04-22 02:32:00,
2013-04-21 21:35:00,54.8,52.5,30.15,ENE,61,0.0,0.0,92,0.00,,---,0.00,0.00,VWS V14.01,2013-04-22 02:35:00,
2013-04-21 21:38:00,54.6,52.3,30.15,ENE,61,0.0,0.0,92,0.00,,---,0.00,0.00,VWS V14.01,2013-04-22 02:38:00,
2013-04-21 21:40:00,54.5,52.2,30.15,ENE,61,0.0,0.0,92,0.00,,---,0.00,0.00,VWS V14.01,2013-04-22 02:40:00,
2013-04-21 21:42:00,54.3,52.0,30.15,ENE,61,0.0,0.0,92,0.00,,---,0.00,0.00,VWS V14.01,2013-04-22 02:42:00,
2013-04-21 21:43:00,54.3,52.0,30.15,ENE,61,0.0,0.0,92,0.00,,---,0.00,0.00,VWS V14.01,2013-04-22 02:43:00,
2013-04-21 21:44:00,54.3,52.0,30.15,ENE,61,0.0,0.0,92,0.00,,---,0.00,0.00,VWS V14.01,2013-04-22 02:44:00,
2013-04-21 21:47:00,54.3,52.0,30.15,ENE,61,0.0,0.0,92,0.00,,---,0.00,0.00,VWS V14.01,2013-04-22 02:47:00,
2013-04-21 21:48:00,54.2,51.9,30.15,ENE,61,0.0,0.0,92,0.00,,---,0.00,0.00,VWS V14.01,2013-04-22 02:48:00,
2013-04-21 21:49:00,54.1,51.8,30.15,ENE,61,0.0,0.0,92,0.00,,---,0.00,0.00,VWS V14.01,2013-04-22 02:49:00,
2013-04-21 21:53:00,53.9,51.6,30.15,ENE,61,0.0,0.0,92,0.00,,---,0.00,0.00,VWS V14.01,2013-04-22 02:53:00,
2013-04-21 21:54:00,53.9,51.6,30.15,ENE,61,0.0,0.0,92,0.00,,---,0.00,0.00,VWS V14.01,2013-04-22 02:54:00,
2013-04-21 21:55:00,53.9,51.6,30.15,ENE,61,0.0,0.0,92,0.00,,---,0.00,0.00,VWS V14.01,2013-04-22 02:55:00,
2013-04-21 21:59:00,53.8,51.5,30.15,ENE,61,0.0,0.0,92,0.00,,---,0.00,0.00,VWS V14.01,2013-04-22 02:59:00,
2013-04-21 22:00:00,53.8,51.5,30.15,ENE,61,0.0,0.0,92,0.00,,---,0.00,0.00,VWS V14.01,2013-04-22 03:00:00,
2013-04-21 22:01:00,53.7,51.4,30.15,ENE,61,0.0,0.0,92,0.00,,---,0.00,0.00,VWS V14.01,2013-04-22 03:01:00,
2013-04-21 22:05:00,53.6,51.3,30.15,ENE,61,0.0,0.0,92,0.00,,---,0.00,0.00,VWS V14.01,2013-04-22 03:05:00,
2013-04-21 22:07:00,53.5,51.2,30.16,ENE,61,0.0,0.0,92,0.00,,---,0.00,0.00,VWS V14.01,2013-04-22 03:07:00,
2013-04-21 22:08:00,53.5,51.5,30.16,ENE,61,0.0,0.0,93,0.00,,---,0.00,0.00,VWS V14.01,2013-04-22 03:08:00,
2013-04-21 22:10:00,53.5,51.5,30.16,ENE,61,0.0,0.0,93,0.00,,---,0.00,0.00,VWS V14.01,2013-04-22 03:10:00,
2013-04-21 22:11:00,53.4,51.4,30.16,ENE,61,0.0,0.0,93,0.00,,---,0.00,0.00,VWS V14.01,2013-04-22 03:11:00,
2013-04-21 22:13:00,53.3,51.3,30.16,ENE,61,0.0,0.0,93,0.00,,---,0.00,0.00,VWS V14.01,2013-04-22 03:13:00,
2013-04-21 22:14:00,53.2,51.2,30.16,ENE,61,0.0,0.0,93,0.00,,---,0.00,0.00,VWS V14.01,2013-04-22 03:14:00,
2013-04-21 22:15:00,53.2,51.2,30.16,ENE,61,0.0,0.0,93,0.00,,---,0.00,0.00,VWS V14.01,2013-04-22 03:15:00,
2013-04-21 22:16:00,53.1,51.1,30.16,ENE,61,0.0,0.0,93,0.00,,---,0.00,0.00,VWS V14.01,2013-04-22 03:16:00,
2013-04-21 22:18:00,53.1,51.1,30.16,ENE,61,0.0,0.0,93,0.00,,---,0.00,0.00,VWS V14.01,2013-04-22 03:18:00,
2013-04-21 22:19:00,53.0,51.0,30.16,ENE,61,0.0,0.0,93,0.00,,---,0.00,0.00,VWS V14.01,2013-04-22 03:19:00,
2013-04-21 22:20:00,53.0,51.0,30.16,ENE,61,0.0,0.0,93,0.00,,---,0.00,0.00,VWS V14.01,2013-04-22 03:20:00,
2013-04-21 22:22:00,52.8,50.8,30.16,ENE,61,0.0,0.0,93,0.00,,---,0.00,0.00,VWS V14.01,2013-04-22 03:22:00,
2013-04-21 22:23:00,52.7,50.7,30.16,ENE,61,0.0,0.0,93,0.00,,---,0.00,0.00,VWS V14.01,2013-04-22 03:23:00,
2013-04-21 22:25:00,52.6,50.6,30.16,ENE,61,0.0,0.0,93,0.00,,---,0.00,0.00,VWS V14.01,2013-04-22 03:25:00,
2013-04-21 22:27:00,52.5,50.5,30.16,ENE,61,0.0,0.0,93,0.00,,---,0.00,0.00,VWS V14.01,2013-04-22 03:27:00,
2013-04-21 22:29:00,52.4,50.4,30.16,ENE,61,0.0,0.0,93,0.00,,---,0.00,0.00,VWS V14.01,2013-04-22 03:29:00,
2013-04-21 22:30:00,52.4,50.4,30.16,ENE,61,0.0,0.0,93,0.00,,---,0.00,0.00,VWS V14.01,2013-04-22 03:30:00,
2013-04-21 22:33:00,52.4,50.4,30.16,ENE,61,0.0,0.0,93,0.00,,---,0.00,0.00,VWS V14.01,2013-04-22 03:33:00,
2013-04-21 22:35:00,52.3,50.3,30.17,ENE,61,0.0,0.0,93,0.00,,---,0.00,0.00,VWS V14.01,2013-04-22 03:35:00,
2013-04-21 22:36:00,52.3,50.3,30.17,ENE,61,0.0,0.0,93,0.00,,---,0.00,0.00,VWS V14.01,2013-04-22 03:36:00,
2013-04-21 22:37:00,52.3,50.6,30.17,ENE,61,0.0,0.0,94,0.00,,---,0.00,0.00,VWS V14.01,2013-04-22 03:37:00,
2013-04-21 22:38:00,52.3,50.6,30.16,ENE,61,0.0,0.0,94,0.00,,---,0.00,0.00,VWS V14.01,2013-04-22 03:38:00,
2013-04-21 22:41:00,52.2,50.5,30.17,ENE,61,0.0,0.0,94,0.00,,---,0.00,0.00,VWS V14.01,2013-04-22 03:41:00,
2013-04-21 22:43:00,52.1,50.4,30.17,ENE,61,0.0,0.0,94,0.00,,---,0.00,0.00,VWS V14.01,2013-04-22 03:43:00,
2013-04-21 22:44:00,52.1,50.4,30.17,ENE,61,0.0,0.0,94,0.00,,---,0.00,0.00,VWS V14.01,2013-04-22 03:44:00,
2013-04-21 22:46:00,52.1,50.4,30.17,ENE,61,0.0,0.0,94,0.00,,---,0.00,0.00,VWS V14.01,2013-04-22 03:46:00,
2013-04-21 22:47:00,52.0,50.3,30.17,ENE,61,0.0,0.0,94,0.00,,---,0.00,0.00,VWS V14.01,2013-04-22 03:47:00,
2013-04-21 22:48:00,51.9,50.2,30.17,ENE,61,0.0,0.0,94,0.00,,---,0.00,0.00,VWS V14.01,2013-04-22 03:48:00,
2013-04-21 22:50:00,51.9,50.2,30.17,ENE,61,0.0,0.0,94,0.00,,---,0.00,0.00,VWS V14.01,2013-04-22 03:50:00,
2013-04-21 22:51:00,51.8,50.1,30.17,ENE,61,0.0,0.0,94,0.00,,---,0.00,0.00,VWS V14.01,2013-04-22 03:51:00,
2013-04-21 22:53:00,51.8,50.1,30.17,ENE,61,0.0,0.0,94,0.00,,---,0.00,0.00,VWS V14.01,2013-04-22 03:53:00,
2013-04-21 22:55:00,51.8,50.1,30.17,ENE,61,0.0,0.0,94,0.00,,---,0.00,0.00,VWS V14.01,2013-04-22 03:55:00,
2013-04-21 22:58:00,51.6,49.9,30.17,ENE,61,0.0,0.0,94,0.00,,---,0.00,0.00,VWS V14.01,2013-04-22 03:58:00,
2013-04-21 22:59:00,51.5,49.8,30.17,ENE,61,0.0,0.0,94,0.00,,---,0.00,0.00,VWS V14.01,2013-04-22 03:59:00,
2013-04-21 23:00:00,51.5,49.8,30.17,ENE,61,0.0,0.0,94,0.00,,---,0.00,0.00,VWS V14.01,2013-04-22 04:00:00,
2013-04-21 23:01:00,51.6,49.9,30.17,ENE,61,0.0,0.0,94,0.00,,---,0.00,0.00,VWS V14.01,2013-04-22 04:01:00,
2013-04-21 23:02:00,51.6,49.9,30.17,ENE,61,0.0,0.0,94,0.00,,---,0.00,0.00,VWS V14.01,2013-04-22 04:02:00,
2013-04-21 23:03:00,51.5,49.8,30.17,ENE,61,0.0,0.0,94,0.00,,---,0.00,0.00,VWS V14.01,2013-04-22 04:03:00,
2013-04-21 23:06:00,51.4,49.7,30.17,ENE,61,0.0,0.0,94,0.00,,---,0.00,0.00,VWS V14.01,2013-04-22 04:06:00,
2013-04-21 23:07:00,51.4,49.7,30.17,ENE,61,0.0,0.0,94,0.00,,---,0.00,0.00,VWS V14.01,2013-04-22 04:07:00,
2013-04-21 23:08:00,51.3,49.6,30.17,ENE,61,0.0,0.0,94,0.00,,---,0.00,0.00,VWS V14.01,2013-04-22 04:08:00,
2013-04-21 23:09:00,51.3,49.6,30.17,ENE,61,0.0,0.0,94,0.00,,---,0.00,0.00,VWS V14.01,2013-04-22 04:09:00,
2013-04-21 23:10:00,51.2,49.5,30.17,ENE,61,0.0,0.0,94,0.00,,---,0.00,0.00,VWS V14.01,2013-04-22 04:10:00,
2013-04-21 23:12:00,51.2,49.5,30.17,ENE,61,0.0,0.0,94,0.00,,---,0.00,0.00,VWS V14.01,2013-04-22 04:12:00,
2013-04-21 23:13:00,51.2,49.5,30.17,ENE,61,0.0,0.0,94,0.00,,---,0.00,0.00,VWS V14.01,2013-04-22 04:13:00,
2013-04-21 23:14:00,51.1,49.4,30.17,ENE,61,0.0,0.0,94,0.00,,---,0.00,0.00,VWS V14.01,2013-04-22 04:14:00,
2013-04-21 23:16:00,51.0,49.3,30.17,ENE,61,0.0,0.0,94,0.00,,---,0.00,0.00,VWS V14.01,2013-04-22 04:16:00,
2013-04-21 23:18:00,50.8,49.1,30.17,ENE,61,0.0,0.0,94,0.00,,---,0.00,0.00,VWS V14.01,2013-04-22 04:18:00,
2013-04-21 23:19:00,50.8,49.1,30.17,ENE,61,0.0,0.0,94,0.00,,---,0.00,0.00,VWS V14.01,2013-04-22 04:19:00,
2013-04-21 23:23:00,50.8,49.1,30.17,ENE,61,0.0,0.0,94,0.00,,---,0.00,0.00,VWS V14.01,2013-04-22 04:23:00,
2013-04-21 23:24:00,50.8,49.4,30.17,ENE,61,0.0,0.0,95,0.00,,---,0.00,0.00,VWS V14.01,2013-04-22 04:24:00,
2013-04-21 23:25:00,50.8,49.4,30.17,ENE,61,0.0,0.0,95,0.00,,---,0.00,0.00,VWS V14.01,2013-04-22 04:25:00,
2013-04-21 23:28:00,50.7,49.3,30.17,ENE,61,0.0,0.0,95,0.00,,---,0.00,0.00,VWS V14.01,2013-04-22 04:28:00,
2013-04-21 23:30:00,50.6,48.9,30.17,ENE,61,0.0,0.0,94,0.00,,---,0.00,0.00,VWS V14.01,2013-04-22 04:30:00,
2013-04-21 23:31:00,50.6,48.9,30.17,ENE,61,0.0,0.0,94,0.00,,---,0.00,0.00,VWS V14.01,2013-04-22 04:31:00,
2013-04-21 23:32:00,50.5,49.1,30.17,ENE,61,0.0,0.0,95,0.00,,---,0.00,0.00,VWS V14.01,2013-04-22 04:32:00,
2013-04-21 23:34:00,50.4,48.7,30.17,ENE,61,0.0,0.0,94,0.00,,---,0.00,0.00,VWS V14.01,2013-04-22 04:34:00,
2013-04-21 23:36:00,50.4,48.7,30.17,ENE,61,0.0,0.0,94,0.00,,---,0.00,0.00,VWS V14.01,2013-04-22 04:36:00,
2013-04-21 23:37:00,50.3,48.6,30.17,ENE,61,0.0,0.0,94,0.00,,---,0.00,0.00,VWS V14.01,2013-04-22 04:37:00,
2013-04-21 23:38:00,50.3,48.6,30.17,ENE,61,0.0,0.0,94,0.00,,---,0.00,0.00,VWS V14.01,2013-04-22 04:38:00,
2013-04-21 23:39:00,50.3,48.9,30.17,ENE,61,0.0,0.0,95,0.00,,---,0.00,0.00,VWS V14.01,2013-04-22 04:39:00,
2013-04-21 23:40:00,50.2,48.8,30.17,ENE,61,0.0,0.0,95,0.00,,---,0.00,0.00,VWS V14.01,2013-04-22 04:40:00,
2013-04-21 23:42:00,50.1,48.7,30.17,ENE,61,0.0,0.0,95,0.00,,---,0.00,0.00,VWS V14.01,2013-04-22 04:42:00,
2013-04-21 23:43:00,50.1,48.7,30.17,ENE,61,0.0,0.0,95,0.00,,---,0.00,0.00,VWS V14.01,2013-04-22 04:43:00,
2013-04-21 23:44:00,50.1,48.7,30.17,ENE,61,0.0,0.0,95,0.00,,---,0.00,0.00,VWS V14.01,2013-04-22 04:44:00,
2013-04-21 23:45:00,50.1,48.7,30.17,ENE,61,0.0,0.0,95,0.00,,---,0.00,0.00,VWS V14.01,2013-04-22 04:45:00,
2013-04-21 23:48:00,49.9,48.5,30.17,ENE,61,0.0,0.0,95,0.00,,---,0.00,0.00,VWS V14.01,2013-04-22 04:48:00,
2013-04-21 23:49:00,49.8,48.2,30.17,ENE,61,0.0,0.0,94,0.00,,---,0.00,0.00,VWS V14.01,2013-04-22 04:49:00,
2013-04-21 23:50:00,49.9,48.2,30.17,ENE,61,0.0,0.0,94,0.00,,---,0.00,0.00,VWS V14.01,2013-04-22 04:50:00,
2013-04-21 23:51:00,49.8,48.4,30.17,ENE,61,0.0,0.0,95,0.00,,---,0.00,0.00,VWS V14.01,2013-04-22 04:51:00,
2013-04-21 23:52:00,49.8,48.4,30.17,ENE,61,0.0,0.0,95,0.00,,---,0.00,0.00,VWS V14.01,2013-04-22 04:52:00,
2013-04-21 23:54:00,49.7,48.3,30.17,ENE,61,0.0,0.0,95,0.00,,---,0.00,0.00,VWS V14.01,2013-04-22 04:54:00,
2013-04-21 23:55:00,49.6,48.2,30.17,ENE,61,0.0,0.0,95,0.00,,---,0.00,0.00,VWS V14.01,2013-04-22 04:55:00,
2013-04-21 23:57:00,49.5,48.1,30.17,ENE,61,0.0,0.0,95,0.00,,---,0.00,0.00,VWS V14.01,2013-04-22 04:57:00,
2013-04-21 23:59:00,49.5,48.1,30.17,ENE,61,0.0,0.0,95,0.00,,---,0.00,0.00,VWS V14.01,2013-04-22 04:59:00,